[{"header": {"dx": 0.06612293990616946, "dy": 0.0552356325346848, "nx": 98, "ny": 59, "la1": 35.046912555036876, "la2": 31.78801023549047, "lo1": -121.43107172385933, "lo2": -114.95102361305473, "refTime": "2026040917", "parameterCategory": 1, "parameterNumber": 2}, "data": [13.7, 13.19, 13.19, 13.19, 13.19, 13.19, 13.19, 13.19, 11.8, 12.27, 13.15, 11.03, 12.14, 10.84, 10.28, 10.73, 10.73, 10.73, 10.73, 10.28, 9.39, 9.39, 6.32, 8.94, -8.05, -5.06, -5.6, -6.26, -6.26, -5.94, -5.58, -4.43, -3.47, -3.0, -1.63, 0.0, 0.0, 2.26, 3.4, 5.69, 7.6, 9.13, 9.97, 9.96, 11.44, 13.16, 14.37, 15.34, 15.72, 14.39, 12.83, 11.62, 11.18, 10.68, 10.28, 9.96, 10.17, 10.73, 10.73, 11.03, 11.33, 11.28, 10.84, 10.78, 11.21, 11.28, 11.28, 11.76, 11.11, 12.04, 12.24, 11.76, 11.28, 11.0, 10.12, 9.64, 10.66, 11.62, 12.96, 12.14, 9.2, 5.06, 4.11, 2.6, 0.0, 2.6, 7.2, 8.24, 8.33, 8.67, 10.04, 10.6, 10.84, 11.95, 12.52, 11.87, 9.2, 8.03, 13.28, 13.7, 13.19, 13.19, 13.19, 13.19, 13.59, 12.16, 10.43, 10.43, 11.16, 12.3, 11.28, 10.41, 11.03, 11.18, 10.28, 11.62, 10.28, 9.54, 10.28, 10.28, 6.64, 0.0, -6.71, -6.71, -6.71, -6.71, -6.71, -6.0, -4.74, -3.47, -1.41, -1.41, 0.0, 0.0, 1.58, 1.95, 2.69, 4.96, 7.87, 9.3, 9.96, 10.12, 12.63, 13.58, 15.86, 15.79, 15.77, 13.28, 11.62, 11.18, 11.11, 10.52, 10.08, 10.17, 10.17, 10.73, 10.73, 11.11, 11.11, 11.33, 10.84, 11.28, 11.28, 11.28, 11.28, 11.76, 11.76, 12.04, 12.46, 12.24, 11.33, 11.02, 10.58, 9.79, 11.13, 11.62, 12.96, 12.14, 9.2, 5.06, 4.11, 2.6, 0.0, 2.6, 7.2, 8.24, 8.33, 8.67, 10.04, 10.6, 10.84, 11.95, 12.52, 11.87, 9.2, 8.03, 13.28, 13.7, 13.19, 13.19, 11.8, 11.8, 12.16, 12.16, 10.75, 10.12, 8.85, 8.55, 10.4, 10.4, 9.6, 10.41, 10.96, 10.96, 10.96, 10.6, 9.83, 10.73, 11.18, 7.27, 0.0, -6.4, -6.71, -6.71, -6.71, -5.06, -3.4, 0.0, 0.0, 0.0, 1.63, 2.69, 1.58, 1.75, 3.49, 5.29, 8.22, 10.36, 11.38, 13.18, 15.02, 16.54, 18.26, 17.56, 13.41, 10.73, 10.28, 10.22, 10.47, 10.28, 9.77, 10.17, 10.32, 10.73, 11.11, 11.11, 11.11, 11.11, 10.68, 11.03, 11.03, 11.03, 11.54, 11.54, 11.61, 12.27, 12.71, 12.85, 12.48, 11.14, 10.69, 10.28, 10.28, 13.41, 13.86, 13.15, 9.2, 7.2, 3.4, 0.0, 0.0, 0.0, 3.6, 7.07, 8.0, 8.99, 11.62, 11.85, 11.72, 11.95, 11.91, 10.18, 8.4, 8.4, 13.28, 13.28, 13.7, 11.8, 11.8, 11.8, 12.16, 12.16, 8.85, 8.31, 8.53, 7.59, 10.8, 10.0, 8.94, 8.94, 9.97, 10.35, 11.45, 10.96, 10.96, 9.75, 11.18, 11.03, 7.59, 0.0, -5.06, -6.4, -5.06, 0.0, 0.0, 0.0, 2.83, 6.32, 4.96, 5.21, 4.4, 4.15, 5.2, 7.11, 10.69, 13.28, 14.88, 14.82, 15.59, 15.69, 14.99, 11.18, 10.28, 9.79, 9.35, 9.64, 9.85, 9.66, 9.77, 9.9, 10.6, 11.03, 11.11, 11.11, 11.11, 11.11, 11.11, 10.85, 10.85, 10.85, 11.18, 11.03, 11.52, 12.44, 13.62, 14.62, 14.71, 12.52, 10.28, 10.28, 9.83, 13.41, 15.65, 13.23, 7.89, 5.21, 5.06, 1.98, 0.0, 0.0, 4.96, 6.01, 7.28, 10.73, 12.79, 11.6, 11.61, 11.18, 9.26, 9.33, 9.03, 8.6, 13.28, 13.28, 12.65, 11.8, 11.8, 11.8, 12.16, 10.75, 10.43, 8.31, 7.24, 7.59, 9.67, 10.0, 9.2, 9.08, 8.22, 9.42, 10.8, 10.35, 11.2, 8.93, 10.18, 10.4, 7.59, 7.9, 0.0, 0.0, 0.0, 0.0, 0.0, 4.4, 9.67, 9.97, 10.0, 8.94, 7.9, 9.17, 7.6, 9.43, 12.01, 13.03, 13.03, 12.45, 12.51, 11.91, 11.58, 11.18, 10.73, 10.25, 10.14, 10.14, 9.97, 9.75, 10.18, 10.6, 10.6, 11.03, 11.11, 11.11, 11.11, 11.11, 10.43, 10.43, 10.85, 10.95, 11.37, 11.37, 11.5, 12.56, 14.15, 15.23, 15.97, 15.2, 12.52, 8.91, 9.35, 11.57, 14.22, 13.32, 5.75, 4.29, 4.74, 1.73, 0.0, 3.8, 6.32, 7.28, 9.3, 11.9, 11.99, 11.61, 10.73, 8.77, 9.21, 9.29, 8.94, 8.94, 13.28, 12.27, 12.27, 12.65, 11.8, 11.8, 12.16, 10.43, 10.43, 7.13, 7.24, 6.17, 9.3, 9.6, 9.58, 8.73, 8.22, 8.53, 9.27, 9.62, 9.77, 8.53, 9.48, 9.17, 8.53, 8.53, 10.4, 5.0, 0.0, 0.0, 0.0, 6.64, 8.8, 11.45, 13.01, 13.01, 12.46, 13.15, 10.89, 5.94, 6.54, 8.94, 10.61, 11.62, 12.08, 12.14, 11.91, 11.59, 11.62, 11.18, 11.14, 10.69, 10.58, 10.58, 11.02, 11.33, 11.28, 11.28, 11.33, 11.33, 11.28, 10.6, 10.32, 10.43, 10.85, 11.37, 10.95, 10.85, 11.79, 12.56, 13.72, 13.72, 15.18, 16.39, 15.65, 13.86, 8.9, 8.05, 8.49, 11.61, 4.54, 5.06, 4.47, 3.91, 2.54, 4.71, 7.13, 10.01, 12.13, 11.53, 12.27, 12.52, 8.4, 7.6, 9.21, 9.39, 8.94, 10.28, 12.27, 12.27, 12.27, 12.65, 12.65, 11.8, 10.43, 10.43, 8.94, 7.13, 6.21, 4.4, 8.93, 9.6, 10.8, 9.58, 9.27, 9.62, 8.85, 8.85, 10.37, 13.15, 14.55, 15.18, 14.42, 13.19, 13.59, 14.3, 9.17, 0.0, 0.0, 4.2, 8.8, 9.33, 11.03, 13.77, 14.19, 13.86, 13.86, 0.0, 0.0, 7.19, 10.73, 11.99, 14.18, 12.42, 12.31, 11.44, 11.57, 12.07, 11.62, 10.73, 11.18, 11.18, 11.58, 11.58, 11.46, 11.46, 11.49, 11.93, 11.28, 10.5, 10.6, 10.68, 11.11, 11.37, 11.18, 10.68, 11.18, 12.58, 13.44, 13.49, 13.53, 14.97, 16.37, 15.59, 13.79, 8.45, 8.94, 9.79, 6.32, 6.01, 6.01, 6.3, 6.24, 6.97, 9.42, 11.75, 13.15, 12.71, 11.2, 5.4, 3.6, 6.01, 8.94, 8.94, 9.74, 10.73, 11.88, 12.27, 12.27, 12.27, 12.65, 10.43, 10.43, 10.43, 8.94, 6.0, 5.0, 3.65, 4.6, 7.9, 10.01, 8.73, 9.82, 10.55, 9.84, 10.18, 11.99, 13.15, 13.41, 15.65, 15.2, 15.2, 15.65, 14.39, 14.75, 9.48, 5.4, 8.53, 10.41, 11.2, 10.84, 12.14, 12.86, 11.18, 5.2, -5.2, -0.0, 13.86, 16.09, 16.99, 16.09, 14.3, 11.62, 11.18, 11.62, 12.07, 10.73, 11.18, 11.62, 11.62, 11.62, 11.62, 11.62, 11.58, 11.58, 11.58, 11.46, 10.58, 10.58, 10.45, 10.45, 11.36, 11.8, 11.06, 11.05, 11.96, 12.74, 13.21, 13.76, 14.21, 15.07, 15.05, 12.79, 12.03, 12.52, 14.26, 15.18, 9.27, 6.3, 7.59, 8.53, 9.76, 10.41, 12.25, 12.58, 12.07, 6.2, 1.52, 3.4, 7.6, 8.49, 8.41, 9.74, 9.83, 11.88, 12.27, 12.27, 12.27, 12.65, 11.52, 11.52, 9.22, 8.94, 7.19, 4.58, 4.08, 4.81, 5.11, 6.21, 6.94, 8.3, 9.48, 10.18, 10.3, 11.5, 12.72, 13.75, 14.19, 12.86, 11.18, 9.54, 13.15, 15.65, 13.57, 12.39, 15.2, 15.2, 13.86, 12.52, 11.62, 11.18, 10.6, -0.0, -2.49, -0.0, 4.66, 10.43, 10.41, 10.4, 10.75, 11.84, 11.02, 9.97, 10.66, 11.62, 10.73, 11.62, 11.62, 11.62, 11.62, 11.62, 11.18, 11.62, 11.62, 11.18, 10.73, 10.28, 10.25, 10.25, 11.06, 12.04, 11.59, 10.7, 11.15, 12.49, 13.39, 14.3, 14.75, 14.3, 13.41, 11.62, 11.62, 13.86, 16.07, 16.17, 12.13, 6.95, 6.32, 8.37, 9.86, 11.03, 11.03, 10.66, 9.83, 5.51, 4.11, 5.58, 8.05, 8.49, 8.41, 9.7, 9.39, 12.39, 12.39, 12.79, 12.79, 11.52, 11.52, 11.52, 10.43, 9.16, 7.54, 6.63, 7.19, 7.41, 8.23, 6.2, 6.0, 6.95, 7.16, 7.32, 6.0, 5.8, 8.1, 8.66, 11.17, 11.44, 10.4, 8.49, 10.18, 13.99, 14.3, 13.19, -0.0, 3.79, 6.2, 9.66, 10.96, 8.91, 1.54, -0.0, -0.0, 2.1, 4.81, 5.75, 5.63, 7.28, 7.6, 8.17, 9.97, 10.6, 9.33, 9.64, 10.08, 10.68, 11.18, 11.62, 11.62, 11.58, 11.58, 11.58, 11.58, 11.14, 10.28, 10.28, 8.49, 9.35, 10.7, 11.59, 11.18, 11.62, 11.59, 12.49, 13.39, 14.29, 14.73, 14.28, 12.86, 11.36, 11.36, 11.86, 14.66, 17.2, 15.58, 10.18, 5.37, 6.18, 8.15, 9.63, 10.04, 10.22, 8.94, 6.21, 5.29, 6.71, 7.6, 8.41, 9.32, 10.14, 8.94, 12.39, 12.39, 12.79, 13.19, 12.27, 11.52, 11.52, 10.43, 9.16, 8.73, 7.78, 8.51, 9.8, 11.21, 10.86, 9.31, 8.29, 8.29, 9.39, 10.19, 9.67, 9.24, 8.43, 8.18, 8.85, 12.58, 10.28, 9.75, 10.79, 11.53, 7.19, -0.0, -0.0, 2.19, 6.71, 10.04, 6.45, -0.0, 1.18, 2.66, 2.66, 4.4, 4.6, 4.4, 6.64, 7.6, 8.33, 8.41, 8.43, 8.73, 9.21, 9.24, 9.79, 10.24, 10.73, 11.14, 11.46, 11.64, 11.64, 11.21, 11.12, 9.83, 7.74, 9.11, 9.6, 10.68, 11.14, 12.07, 11.93, 11.54, 11.79, 12.44, 13.78, 13.78, 13.29, 13.29, 12.04, 11.27, 11.68, 12.72, 14.79, 15.78, 13.84, 8.44, 5.72, 5.95, 7.81, 8.24, 9.76, 8.43, 6.26, 7.15, 6.61, 6.61, 7.81, 10.04, 9.74, 8.49, 12.39, 12.39, 12.79, 13.19, 12.27, 12.27, 12.27, 11.33, 10.12, 8.73, 8.83, 9.21, 10.97, 11.9, 12.33, 11.68, 12.08, 13.99, 15.41, 16.39, 16.12, 15.68, 15.39, 15.93, 13.41, 12.96, 12.35, 6.88, 7.21, 5.58, 6.01, 1.63, -0.0, -0.0, -0.0, 2.49, 2.02, 1.49, 2.82, 4.14, 3.91, 2.82, 2.28, -0.0, 6.32, 7.63, 8.49, 8.49, 8.49, 8.94, 8.49, 8.89, 8.77, 8.8, 9.35, 9.39, 10.28, 11.84, 11.5, 10.08, 6.32, 4.37, 5.21, 7.56, 8.72, 9.96, 11.03, 11.91, 11.18, 10.6, 10.4, 11.04, 11.6, 11.6, 11.6, 12.18, 11.6, 11.2, 11.02, 11.99, 12.93, 13.07, 12.08, 11.2, 6.24, 6.01, 6.87, 8.4, 8.6, 8.6, 7.37, 7.54, 7.08, 6.45, 8.06, 9.75, 9.54, 7.6, 12.39, 12.39, 12.79, 13.19, 12.27, 12.27, 12.27, 10.99, 10.99, 10.52, 9.8, 10.12, 10.97, 12.65, 14.18, 14.51, 14.19, 13.38, 12.96, 13.41, 13.41, 13.41, 13.39, 13.39, 12.0, 10.6, 10.14, 9.68, 8.84, 7.11, 6.71, 5.81, 2.8, -0.0, -0.0, -0.0, -0.0, 4.22, 3.4, 2.82, 2.4, 1.18, 1.84, -0.0, -0.0, 5.69, 7.2, 8.49, 8.49, 8.49, 7.6, 8.05, 8.44, 7.42, 8.48, 8.91, 8.91, 10.08, 8.22, -5.37, -1.16, 2.13, 3.3, 4.66, 6.4, 7.59, 9.0, 10.43, 10.5, 11.55, 10.91, 9.8, 8.67, 9.04, 9.76, 10.99, 11.12, 10.35, 10.56, 10.8, 9.9, 11.03, 11.96, 12.6, 8.15, 7.28, 5.95, 6.14, 8.43, 7.6, 7.81, 6.88, 7.31, 6.88, 7.76, 9.42, 7.85, 7.15, 12.39, 12.39, 12.39, 12.79, 12.27, 11.9, 12.42, 11.64, 11.64, 10.86, 10.77, 10.69, 11.52, 12.29, 13.97, 15.07, 15.44, 14.97, 14.65, 14.28, 14.3, 14.3, 14.75, 15.63, 15.63, 15.58, 14.16, 14.16, 13.23, 12.48, 11.18, 9.83, 8.24, 3.47, 1.98, 1.98, 3.47, 5.06, 5.06, 3.4, 1.49, -0.0, -0.0, -0.0, -0.0, 3.11, 5.69, 9.33, 10.41, 10.52, 9.83, 10.73, 13.01, 9.8, 8.85, 7.26, 7.51, 9.26, 10.73, -3.91, -1.93, -0.0, 1.69, 1.62, 3.3, 5.21, 6.53, 7.27, 8.15, 7.87, 9.6, 11.95, 10.6, 6.95, 5.9, 8.94, 8.58, 8.82, 8.8, 8.54, 8.8, 8.99, 11.55, 13.57, 10.41, 9.48, 5.8, 2.1, 4.0, 5.93, 7.81, 6.32, 6.21, 6.7, 8.3, 8.99, 7.85, 7.55, 12.39, 12.39, 12.39, 13.15, 13.15, 12.42, 12.42, 11.64, 11.64, 12.13, 11.44, 11.64, 11.52, 12.29, 13.71, 14.99, 15.6, 15.94, 15.71, 15.55, 15.18, 15.18, 15.65, 16.09, 16.07, 16.47, 15.93, 15.37, 15.05, 14.67, 13.86, 12.48, 11.18, 7.37, 5.06, 5.37, 5.69, 6.08, 7.07, 3.97, 1.84, -0.0, -0.0, -0.0, -0.0, -0.0, 2.83, 6.01, 7.44, 8.18, 9.97, 9.97, 5.46, -0.0, -0.0, 2.4, 7.21, 8.49, 8.29, -0.0, -2.17, -0.0, -0.0, -0.0, 1.84, 3.65, 6.95, 7.68, 7.68, 8.18, 8.6, 9.3, -8.22, -10.73, -10.28, -9.83, -10.28, 10.28, 10.28, 8.55, 8.43, 8.18, 8.58, 9.96, 9.85, 11.2, 9.48, 2.19, 1.84, 5.1, 7.68, 5.44, 5.06, 6.18, 7.35, 8.14, 7.85, 7.85, 12.39, 12.74, 12.74, 13.15, 13.15, 12.42, 12.42, 12.42, 12.13, 12.13, 11.8, 12.27, 12.09, 12.29, 13.02, 14.39, 15.49, 16.3, 16.37, 16.19, 15.9, 16.01, 16.09, 16.54, 16.52, 16.39, 16.39, 15.96, 15.51, 15.14, 15.2, 15.09, 13.7, 11.62, 7.15, 5.72, 6.52, 6.52, 7.63, 3.6, 1.73, -0.0, -0.0, -0.0, -0.0, -0.0, -0.0, -0.0, -0.0, 2.54, 6.01, 4.22, 1.95, -0.0, 2.4, 3.2, 7.21, 8.24, 7.15, 1.84, -1.47, -2.97, -0.0, -0.0, 2.4, 4.46, 5.37, 7.51, 7.68, 8.4, 8.29, 9.33, -12.14, -11.46, -10.0, -6.2, -0.0, -0.0, 11.62, 7.59, 3.25, 5.9, 6.98, 7.6, 7.2, 7.63, 9.45, 6.95, 3.15, 4.83, 5.86, 3.55, 5.37, 6.7, 7.67, 7.85, 7.6, 7.6, 12.74, 12.74, 13.15, 12.74, 12.74, 12.42, 12.42, 13.19, 12.13, 12.13, 12.51, 12.27, 13.03, 12.82, 13.51, 13.78, 14.53, 15.49, 16.3, 16.58, 16.34, 16.01, 16.07, 16.09, 16.02, 15.95, 16.03, 16.08, 16.08, 16.54, 16.99, 16.89, 15.55, 13.75, 7.15, 6.23, 5.72, 5.95, 5.06, 2.4, -0.0, -0.0, -0.0, -0.0, -4.2, -2.83, -0.0, -0.0, -0.0, -0.0, -0.0, -0.0, -0.0, 4.0, 4.0, 4.0, 6.32, 2.97, -0.0, -0.0, -0.0, -0.0, -0.0, -0.0, 3.6, 3.72, 5.37, 6.7, 8.77, 9.29, 9.83, 11.18, -12.96, -11.28, -3.68, 2.37, 7.82, 10.12, 11.62, 11.62, 7.59, 2.39, 1.75, 2.99, 5.1, 5.69, 8.17, 7.28, 6.63, 6.63, 4.2, 2.21, 3.4, 6.01, 8.12, 7.33, 7.69, 7.69, 12.74, 12.74, 13.15, 13.15, 12.74, 12.03, 12.79, 12.79, 13.19, 12.51, 12.9, 13.29, 13.03, 13.34, 13.13, 13.8, 13.99, 14.94, 15.79, 16.29, 16.0, 16.01, 15.57, 15.2, 15.57, 16.03, 16.54, 16.52, 16.53, 17.37, 17.29, 17.53, 16.74, 14.86, 12.22, 8.05, 6.0, 4.43, 2.12, -0.0, -0.0, -0.0, -0.0, -0.0, -0.0, -0.0, -0.0, -0.0, -0.0, -0.0, -0.0, -0.0, -0.0, 4.2, 4.0, 4.2, -0.0, -0.0, -0.0, -0.0, -0.0, -0.0, -0.0, -0.0, -0.0, 2.26, 4.43, 7.6, 9.13, 10.84, 11.95, 11.28, 2.93, 7.51, 8.01, 9.5, 9.76, 10.79, 11.33, 10.8, 10.75, 10.28, 2.83, 0.0, 0.0, 1.67, 5.59, 7.07, 7.07, 8.55, 5.06, 2.33, 2.4, 4.96, 7.27, 6.95, 6.64, 6.64, 12.74, 12.74, 12.74, 13.15, 12.98, 12.98, 12.79, 12.79, 13.19, 12.9, 12.9, 13.29, 13.99, 13.74, 12.82, 15.19, 12.99, 14.21, 15.04, 15.08, 15.45, 15.78, 15.08, 16.35, 15.15, 16.47, 13.65, 16.48, 16.91, 15.61, 16.91, 17.23, 16.44, 15.31, 14.3, 12.42, 9.83, 9.21, 8.18, 3.8, -0.0, -0.0, -0.0, -0.0, -0.0, -0.0, -0.0, -0.0, -0.0, -0.0, -0.0, -0.0, -0.0, -0.0, -0.0, -0.0, -0.0, -0.0, -0.0, -0.0, -0.0, -0.0, -0.0, -0.0, -0.0, -0.0, 5.06, 7.15, 8.48, 11.55, 12.45, 12.45, 14.16, 13.75, 12.45, 12.21, 12.2, 12.14, 12.14, 11.34, 9.6, 9.33, -8.8, -6.95, -2.39, 0.0, 3.82, 6.2, 7.59, 7.59, 6.95, 4.2, 2.83, 4.0, 5.46, 6.48, 6.31, 6.31, 12.74, 12.74, 12.74, 12.98, 12.98, 12.98, 12.79, 12.79, 13.19, 13.48, 12.9, 13.59, 13.99, 13.42, 13.2, 13.13, 12.74, 12.95, 14.3, 14.28, 16.0, 14.71, 14.03, 15.06, 13.76, 14.56, 15.02, 14.94, 15.91, 16.21, 16.73, 16.85, 16.19, 14.19, 14.13, 13.97, 12.83, 11.62, 10.28, 7.94, 6.8, 4.71, 2.54, 3.72, 3.79, -0.0, -0.0, -0.0, -0.0, -0.0, -0.0, -0.0, -0.0, -0.0, 2.54, 3.8, -0.0, -0.0, -0.0, 9.83, 9.39, -0.0, -0.0, -0.0, -0.0, -0.0, 2.26, 6.4, 7.98, 9.97, 12.04, 14.83, 17.13, 18.11, 16.37, 14.75, 13.32, 12.27, 12.07, 11.18, 10.23, 8.18, -8.94, -9.21, -8.48, -2.69, 0.0, 3.8, 7.15, 6.64, 7.56, 7.44, 4.08, 3.11, 4.2, 5.7, 5.7, 5.7, 12.74, 12.74, 12.98, 12.98, 12.98, 12.98, 12.39, 12.79, 13.48, 13.89, 13.48, 13.59, 13.99, 13.99, 13.74, 13.51, 12.74, 12.74, 10.48, 12.29, 14.47, 14.36, 13.6, 12.76, 14.0, 15.01, 15.18, 16.21, 17.1, 17.72, 17.74, 17.26, 16.76, 14.51, 12.01, 13.23, 13.99, 12.83, 11.53, 10.28, 8.49, 9.39, 8.8, 6.32, 5.06, 3.6, -0.0, -0.0, -0.0, -0.0, -0.0, -0.0, -0.0, -0.0, 2.69, 5.69, 6.01, 8.49, 9.83, 8.94, 8.94, 8.49, -0.0, -3.8, -2.4, -0.0, 2.26, 5.37, 6.7, 8.21, 10.04, 12.79, 15.84, 16.91, 16.01, 14.92, 12.13, 12.03, 10.81, 10.5, 10.28, 9.83, -9.39, -8.49, -8.67, -8.06, -4.0, 0.0, 3.15, 5.44, 6.32, 8.85, 4.93, 2.13, 2.7, 4.56, 4.56, 4.56, 12.74, 12.98, 12.98, 12.98, 12.98, 12.98, 12.98, 12.79, 13.48, 13.89, 13.89, 13.59, 13.59, 14.24, 13.74, 13.99, 13.13, 12.56, 12.41, 14.03, 15.37, 15.2, 14.86, 13.9, 14.99, 16.53, 16.86, 16.34, 16.52, 16.99, 17.43, 17.43, 17.36, 16.19, 14.13, 14.13, 14.53, 12.74, 12.14, 10.84, 9.89, 8.82, 8.94, 7.6, 5.95, 4.11, -0.0, -6.01, -3.8, -0.0, -0.0, -0.0, -0.0, -0.0, 2.54, 5.69, 6.7, 8.94, 4.2, 0.0, 5.69, 8.49, -0.0, -3.8, -0.0, -0.0, 2.4, 4.22, 5.37, 6.64, 6.58, 10.79, 14.33, 16.04, 6.79, 10.25, 11.22, 10.95, 10.01, 10.01, 10.21, 9.7, 9.39, -9.39, -9.11, -7.44, -4.0, 0.0, 2.83, 6.01, 7.9, 8.82, 7.44, 2.46, 2.06, 2.83, 4.0, 4.0, 12.74, 12.74, 12.98, 12.98, 12.98, 12.98, 13.39, 13.07, 13.48, 13.89, 14.11, 13.59, 13.99, 14.24, 14.24, 13.99, 13.13, 12.56, 12.79, 14.42, 15.71, 15.44, 14.75, 14.69, 15.69, 16.32, 17.23, 17.1, 16.9, 16.07, 16.52, 16.52, 16.51, 16.27, 15.9, 15.36, 14.94, 13.99, 12.14, 11.03, 10.18, 9.97, 9.33, 8.94, 7.81, 4.11, -0.0, -3.6, -2.4, -2.26, -0.0, -0.0, -0.0, -0.0, -0.0, 2.4, 5.06, 7.63, 6.32, 1.84, 2.54, 6.01, -0.0, -0.0, -0.0, -0.0, 2.12, 3.72, 5.69, 5.36, 5.46, 8.82, 10.12, -8.94, -4.11, 1.62, 7.36, 8.43, 9.09, 9.97, 9.77, 9.45, 8.94, -0.0, -8.4, -9.39, -9.39, -6.64, -7.27, -11.62, 6.21, 7.27, 7.27, 4.14, 2.33, 2.67, 2.83, 2.83, 12.74, 12.74, 12.98, 12.98, 12.98, 12.98, 13.15, 13.07, 13.48, 13.89, 14.11, 13.99, 14.24, 14.24, 14.24, 13.99, 13.99, 12.99, 13.58, 14.2, 14.97, 16.12, 15.51, 14.4, 14.79, 15.87, 16.73, 17.06, 17.1, 16.82, 16.02, 16.02, 16.0, 15.78, 15.53, 15.71, 15.61, 14.75, 13.01, 11.35, 9.75, 9.33, 9.63, 9.89, 8.94, 7.37, -0.0, -3.8, -4.22, -1.84, -1.95, -0.0, -0.0, -0.0, -0.0, 2.26, 3.0, 4.29, 8.49, 3.6, 0.0, 0.0, -0.0, -2.26, -0.0, -0.0, 1.95, 6.32, 7.44, 7.07, 8.05, 11.11, 14.3, -12.07, -11.62, -8.55, 0.0, 2.06, 6.4, 7.21, 8.67, 9.48, 9.39, 7.6, -0.0, -2.17, -4.2, -4.2, -4.2, -8.91, 0.0, 3.15, 4.37, 3.91, 3.4, 2.99, 3.17, 3.17, 12.74, 12.74, 12.98, 12.98, 12.98, 12.98, 13.15, 13.57, 13.48, 13.89, 14.11, 14.11, 14.24, 14.24, 14.44, 13.99, 13.99, 13.8, 13.59, 14.2, 14.39, 15.71, 15.83, 15.69, 15.08, 15.08, 16.58, 17.02, 17.06, 16.8, 16.8, 16.37, 15.47, 15.41, 15.47, 15.27, 15.53, 15.34, 14.03, 11.84, 9.64, 8.99, 9.42, 9.75, 9.46, 9.39, 8.05, -0.0, -3.47, -3.22, -2.29, -1.49, -1.73, -0.0, -0.0, -0.0, -0.0, 1.23, 5.37, 8.05, 5.69, 0.0, -6.0, -1.52, -0.0, -0.0, 3.32, 5.63, 8.0, 7.89, 8.24, 9.7, 13.41, 13.41, 13.86, 10.12, -9.48, -2.19, 0.0, 3.82, 7.44, 9.5, 10.6, 10.08, 5.1, -0.0, -2.06, -2.17, -2.83, -8.0, -8.94, -2.06, 1.58, 3.4, 3.68, 3.2, 3.2, 3.2, 12.74, 12.74, 12.98, 12.98, 12.98, 12.98, 13.15, 13.57, 13.48, 13.7, 14.11, 14.11, 14.24, 14.24, 14.44, 14.44, 14.21, 14.21, 14.38, 13.99, 14.18, 14.74, 15.71, 15.83, 15.69, 15.27, 15.51, 16.62, 17.06, 17.06, 16.8, 16.82, 16.36, 16.31, 15.55, 15.02, 15.27, 15.61, 15.18, 12.94, 11.0, 9.49, 9.49, 9.42, 9.75, 9.97, 9.74, 8.05, 6.71, -4.43, -3.22, -2.6, -2.4, -1.18, -0.0, -0.0, -0.0, -0.0, 2.26, 6.7, 8.06, 8.94, -5.37, -1.73, -0.0, 1.75, 3.49, 5.63, 8.24, 7.89, 7.4, 9.97, 11.15, 14.3, 14.65, 15.61, 15.18, 0.0, 0.0, 0.0, 5.11, 9.16, 11.5, 10.52, 5.37, 2.99, -0.0, -0.0, -0.0, -0.0, -0.0, -6.01, 0.0, 2.82, 3.68, 3.68, 3.2, 3.2, 12.98, 12.98, 12.98, 12.98, 12.98, 12.98, 13.15, 13.15, 13.07, 13.7, 14.11, 14.11, 14.24, 13.84, 14.44, 14.44, 14.6, 14.21, 14.38, 14.38, 14.18, 14.33, 14.88, 15.29, 15.29, 15.42, 15.27, 16.0, 16.62, 16.62, 16.8, 16.8, 16.82, 16.8, 16.1, 15.58, 15.44, 15.44, 15.58, 15.04, 13.25, 11.76, 10.45, 9.68, 10.12, 9.85, 9.75, 9.11, 7.63, 6.71, -0.0, -2.4, -2.72, -2.66, -1.73, -1.18, -0.0, -0.0, 2.49, 4.74, 7.6, 7.2, -0.0, -0.0, -0.0, 1.75, 5.63, 8.0, 8.33, 8.49, 8.24, 8.56, 10.14, 11.62, 12.86, 14.21, 16.5, 10.02, -1.47, -1.58, 1.76, 7.36, 12.79, 10.41, 4.83, 2.26, 2.99, 4.71, 6.01, -0.0, -0.0, -2.06, -1.95, 0.0, 2.4, 3.4, 3.2, 3.2, 12.98, 12.98, 12.98, 12.98, 12.98, 12.98, 13.15, 13.15, 13.57, 13.28, 13.7, 14.11, 14.28, 13.84, 14.03, 14.03, 14.6, 14.21, 14.38, 14.38, 14.38, 14.53, 14.33, 14.47, 14.88, 14.88, 15.18, 15.18, 15.69, 16.0, 16.19, 16.22, 16.82, 16.82, 16.62, 15.79, 15.58, 15.85, 16.0, 15.16, 13.89, 12.46, 10.89, 9.72, 10.16, 9.72, 10.02, 9.49, 8.56, 7.4, 6.26, -0.0, -1.7, -2.9, -2.66, -1.84, -0.0, -0.0, 1.1, 3.45, 5.06, 4.46, -0.0, -0.0, 1.75, 2.49, 8.3, 8.94, 8.94, 8.94, 8.89, 9.21, 9.49, 9.97, 10.6, 13.31, 14.62, 8.58, -6.32, -4.22, 0.0, 3.25, 12.65, 11.03, -0.0, -0.0, 1.49, 4.83, 2.69, -0.0, -0.0, -0.0, -7.2, -1.32, 0.0, 2.21, 2.99, 2.99, 12.98, 12.98, 12.98, 12.98, 12.98, 12.98, 13.15, 13.57, 13.57, 13.28, 13.7, 14.11, 14.7, 14.24, 14.24, 14.03, 14.19, 14.19, 14.31, 13.97, 14.38, 14.53, 14.53, 14.65, 14.65, 14.65, 14.65, 15.07, 15.6, 15.94, 16.0, 16.19, 16.22, 16.25, 16.22, 15.87, 15.58, 15.42, 16.0, 15.58, 14.73, 12.63, 11.11, 9.42, 8.77, 9.26, 10.49, 10.68, 10.55, 8.82, 8.06, 5.81, 2.2, -1.7, -3.0, -2.72, -1.4, -0.0, -0.0, -0.0, -0.0, -0.0, -0.0, -0.0, 1.54, 5.21, 7.33, 8.94, 7.89, 8.48, 8.89, 9.24, 9.97, 9.9, 11.02, 12.79, 12.58, 8.53, -8.05, -7.44, 0.0, 0.0, 10.43, 13.86, -0.0, -0.0, -0.0, -0.0, -0.0, -0.0, -0.0, -0.0, -0.0, -3.4, 0.0, 1.0, 1.95, 1.95, 12.98, 12.98, 12.98, 12.98, 12.98, 13.15, 13.15, 13.57, 13.57, 13.28, 13.28, 14.11, 14.28, 14.24, 14.65, 14.44, 14.03, 14.19, 14.31, 14.31, 14.38, 14.53, 14.53, 14.53, 14.65, 14.65, 14.23, 14.65, 15.07, 15.44, 15.51, 15.56, 15.61, 15.81, 16.22, 16.15, 15.69, 15.44, 15.42, 15.61, 14.79, 13.15, 11.5, 9.18, 7.63, 8.77, 11.64, 11.77, 10.47, 10.25, 9.58, 7.82, 4.82, 2.2, -1.99, -3.33, -3.2, -1.55, -0.89, -1.84, -2.49, -3.4, -0.0, -0.0, 2.69, 3.8, 5.31, 9.54, 6.8, 6.18, 6.82, 9.06, 11.05, 12.27, 12.15, 13.59, 13.92, 11.21, 3.53, -8.55, -8.18, -4.6, 9.17, 14.3, -0.0, -2.06, -2.06, -2.54, -3.72, -1.73, -0.0, -0.0, -0.0, -8.05, -1.4, 0.0, 1.84, 1.84, 12.56, 12.56, 12.98, 12.98, 12.98, 13.15, 13.15, 13.57, 13.57, 13.7, 13.7, 13.28, 14.28, 14.28, 14.24, 14.44, 14.44, 14.6, 14.6, 14.73, 14.73, 14.84, 14.84, 14.84, 14.65, 14.65, 14.11, 13.99, 14.42, 14.93, 15.18, 14.84, 15.13, 15.18, 15.78, 15.75, 15.79, 15.58, 15.44, 16.0, 15.2, 13.97, 11.92, 9.74, 8.12, 8.95, 11.8, 12.13, 10.12, 8.59, 8.22, 7.64, 5.69, 4.82, 2.2, -1.05, -2.82, -2.67, -2.4, -1.96, -2.49, -3.4, -0.0, 2.06, 3.8, 2.99, 4.56, 8.24, 7.89, 7.28, 6.18, 7.53, 9.8, 12.96, 14.55, 14.47, 13.59, 11.92, 10.5, 8.22, -9.3, -8.93, 0.0, 13.41, -0.0, -3.68, -0.0, -0.0, -6.01, -3.0, -1.84, -0.0, 1.49, -0.0, 0.0, 0.0, 0.99, 0.99, 12.56, 12.56, 12.56, 12.98, 12.98, 13.15, 13.15, 13.57, 13.57, 14.13, 13.7, 13.7, 13.7, 14.7, 14.24, 14.44, 14.44, 15.02, 15.02, 15.16, 15.16, 15.16, 14.84, 14.84, 14.93, 14.93, 14.42, 13.47, 15.27, 13.99, 14.75, 15.18, 15.27, 15.13, 15.18, 15.56, 15.44, 15.58, 15.44, 15.44, 15.58, 14.38, 12.74, 10.27, 9.2, 10.24, 12.14, 14.37, 13.44, 11.62, 8.23, 6.28, 5.21, 4.84, 4.66, 2.0, -0.0, -2.26, -2.09, -0.89, -1.03, -0.0, -0.0, 3.6, 3.8, 3.6, 3.4, 7.63, 8.05, 8.38, 7.5, 8.49, 10.28, 12.07, 16.54, 16.58, 12.6, 9.4, 10.04, 11.14, 9.3, -5.4, -10.8, -8.22, 12.96, -0.0, -0.0, 9.8, 11.18, 8.94, -3.6, -0.0, 1.84, 1.4, -0.0, 0.0, 1.05, 1.05, 12.56, 12.56, 12.56, 12.98, 12.98, 13.15, 13.15, 13.57, 13.57, 14.13, 13.7, 13.7, 13.7, 13.86, 14.24, 14.44, 14.44, 14.44, 14.6, 15.02, 15.16, 15.16, 15.27, 14.84, 14.42, 14.42, 14.42, 13.15, 12.74, 14.44, 13.7, 14.65, 15.07, 15.44, 15.51, 15.56, 15.51, 15.69, 15.44, 15.44, 15.58, 15.16, 13.15, 11.09, 9.96, 10.65, 12.44, 13.65, 13.74, 11.58, 8.73, 6.88, 5.6, 5.2, 4.98, 4.38, 4.47, 1.3, -0.0, -0.0, 0.82, -0.0, -0.0, 1.84, 1.58, 1.58, 1.49, 4.22, 8.06, 8.77, 8.48, 8.91, 8.94, 10.14, 15.62, 19.64, 12.63, 8.15, 7.74, 10.2, 11.56, 11.6, 0.0, -9.48, 0.0, 14.3, 13.19, 13.88, 12.07, 8.94, 8.49, -4.0, -0.0, 1.73, 1.63, 0.0, 0.0, 0.0, 12.56, 12.56, 12.56, 12.56, 12.98, 13.15, 13.15, 13.57, 13.57, 14.13, 13.7, 14.11, 13.7, 13.86, 14.28, 14.24, 14.44, 14.44, 14.6, 15.02, 15.16, 15.58, 15.27, 15.27, 14.42, 14.42, 14.11, 13.7, 13.37, 13.37, 13.7, 14.11, 14.84, 14.93, 15.44, 15.51, 15.44, 15.27, 15.44, 15.44, 15.44, 15.58, 14.31, 12.21, 11.03, 10.88, 11.95, 13.29, 13.49, 11.84, 9.58, 9.24, 8.29, 6.88, 5.94, 5.7, 5.81, 4.77, 2.48, 0.96, 1.73, 2.4, -0.0, -0.0, -0.0, -0.0, -0.0, 1.73, 6.01, 7.44, 7.07, 9.64, 9.83, 10.18, 14.36, 18.75, 14.75, 13.41, 12.04, 11.6, 13.15, 13.57, 13.28, 9.8, 0.0, 13.86, 14.3, 14.3, 12.07, 8.94, 7.15, 9.39, -6.32, -0.0, 3.97, 5.69, 1.95, 1.95, 12.56, 12.56, 12.56, 12.56, 12.98, 13.15, 13.15, 13.57, 13.99, 14.13, 14.11, 14.11, 14.11, 13.86, 13.86, 14.28, 14.03, 14.03, 14.19, 14.6, 15.16, 15.16, 15.16, 15.27, 14.84, 14.42, 14.11, 13.7, 13.7, 14.11, 14.11, 14.42, 14.42, 14.42, 14.93, 15.01, 15.44, 15.27, 15.44, 15.27, 15.44, 15.38, 14.53, 12.89, 11.61, 11.28, 11.95, 12.87, 12.8, 12.37, 10.18, 9.89, 9.11, 8.14, 7.81, 7.06, 6.26, 6.26, 5.2, 3.16, 1.66, 3.4, 2.4, -0.0, -0.0, -0.0, 1.73, 1.84, 1.95, 6.01, 6.9, 9.64, 10.28, 10.89, 13.44, 15.18, 15.55, 14.94, 15.15, 14.68, 13.07, 13.07, 11.99, 11.6, 9.17, 9.8, 13.99, 12.58, 10.52, 8.49, 7.6, 7.6, -9.39, -0.0, 5.06, 6.32, 7.6, 7.6, 12.56, 12.56, 12.56, 12.56, 12.98, 12.98, 13.57, 13.57, 13.99, 13.99, 14.11, 14.11, 14.11, 13.7, 13.86, 14.28, 14.03, 14.03, 14.03, 14.6, 14.6, 15.16, 15.16, 15.27, 14.84, 14.42, 14.42, 13.7, 13.7, 14.11, 14.11, 14.11, 13.99, 14.08, 14.08, 14.58, 15.23, 14.93, 15.16, 14.86, 14.86, 15.27, 15.25, 13.07, 11.8, 11.23, 11.71, 12.44, 12.8, 12.04, 10.79, 9.68, 9.18, 8.91, 8.14, 7.37, 7.08, 6.71, 5.7, 4.0, 3.93, 3.35, 4.46, -0.0, -0.0, -0.0, 2.4, 2.69, 2.69, 4.71, 6.32, 7.63, 10.62, 11.62, 12.41, 12.86, 13.86, 14.73, 16.54, 17.74, 15.06, 10.73, 8.82, 9.7, 9.58, 10.0, 10.0, 9.21, 7.01, 8.05, 7.6, 7.6, 8.49, -8.49, 7.6, 6.8, 8.49, 8.49, 12.14, 12.14, 12.56, 12.56, 12.98, 12.98, 13.57, 13.57, 13.99, 13.99, 14.11, 14.11, 14.11, 14.11, 13.86, 13.86, 14.28, 14.03, 14.03, 14.6, 14.6, 14.73, 15.16, 15.16, 14.84, 14.42, 14.42, 13.7, 13.7, 14.11, 14.11, 14.11, 13.7, 14.08, 14.08, 14.08, 14.15, 14.51, 14.73, 14.86, 14.65, 15.12, 14.66, 12.71, 10.05, 10.54, 11.31, 12.01, 12.14, 12.04, 11.09, 10.15, 9.6, 9.08, 8.4, 7.71, 7.42, 7.1, 5.81, 4.82, 4.4, 3.93, 4.22, 1.73, -0.0, -0.0, 2.4, 2.54, 2.69, 2.54, 5.69, 6.44, 10.14, 12.52, 13.83, 12.09, 12.09, 13.18, 15.85, 18.28, 16.27, 9.5, 6.2, 6.58, 8.18, 8.8, 9.04, 6.79, 7.97, 7.6, 7.6, 7.15, 6.4, 0.0, 8.94, 7.15, 7.15, 7.81, 12.14, 12.14, 12.56, 12.56, 12.98, 12.98, 13.57, 13.57, 13.99, 13.99, 14.56, 14.11, 14.11, 14.11, 14.28, 13.86, 13.86, 14.03, 14.03, 14.6, 14.6, 14.6, 14.73, 15.16, 14.84, 14.42, 13.99, 13.99, 13.7, 13.7, 14.11, 13.7, 13.7, 13.7, 14.08, 14.08, 13.72, 14.58, 14.42, 14.6, 14.24, 14.94, 14.13, 11.45, 9.58, 10.57, 11.2, 11.67, 12.4, 11.75, 11.36, 10.73, 9.9, 8.95, 8.14, 7.89, 7.28, 7.42, 6.26, 4.92, 4.82, 4.22, 6.32, 3.72, 2.26, -0.0, -0.0, 1.84, 1.95, 4.46, 5.37, 6.01, 9.39, 11.18, 15.65, 14.19, 11.37, 12.45, 14.84, 17.23, 15.55, 10.8, 7.15, 4.6, 5.86, 7.81, 8.63, 8.63, 10.41, 10.2, 8.41, 7.15, 6.71, 6.64, 0.0, 5.69, 6.71, 7.15, 12.14, 12.14, 12.14, 12.56, 12.98, 12.98, 13.57, 13.57, 13.99, 13.99, 14.42, 14.56, 14.11, 14.11, 14.28, 13.86, 13.86, 13.86, 14.03, 14.03, 14.6, 14.6, 14.73, 14.73, 14.73, 14.42, 13.99, 13.99, 13.28, 13.28, 13.7, 13.7, 13.7, 13.7, 13.28, 14.08, 13.65, 13.72, 14.51, 14.19, 14.24, 13.99, 12.9, 10.55, 9.96, 11.3, 12.77, 12.79, 12.13, 12.03, 11.6, 10.99, 9.77, 9.36, 8.14, 7.89, 7.28, 6.98, 6.21, 5.36, 4.92, 4.66, 4.98, 6.32, 3.4, -0.0, -0.0, 1.84, 3.6, 5.69, 5.69, 7.81, 9.39, 10.28, 13.36, 15.17, 13.38, 11.79, 11.99, 12.56, 12.37, 10.75, 9.2, 6.95, 5.06, 7.27, 9.6, 10.68, 10.88, 10.88, 9.97, 7.98, 7.52, 9.11, 8.0, 5.69, 5.6, 6.71, 12.14, 12.14, 12.14, 12.56, 12.56, 12.98, 12.98, 13.57, 13.57, 13.99, 13.99, 14.13, 14.11, 14.11, 13.7, 13.86, 13.86, 13.86, 13.62, 14.03, 14.19, 14.19, 14.19, 14.73, 14.73, 14.84, 13.99, 13.57, 13.57, 13.28, 13.28, 13.7, 13.7, 13.7, 13.28, 13.28, 13.65, 13.23, 13.65, 13.89, 13.62, 13.03, 11.9, 9.88, 9.0, 11.04, 13.1, 13.27, 12.0, 11.9, 11.69, 11.39, 9.77, 8.95, 8.4, 7.89, 7.06, 6.98, 6.55, 5.77, 4.92, 4.85, 6.79, 5.06, 3.4, 2.4, -0.0, 3.8, 4.22, 5.69, 7.2, 7.81, 8.94, 8.94, 10.28, 13.19, 16.06, 15.95, 10.73, 8.42, 8.88, 9.74, 9.49, 9.48, 8.22, 8.22, 9.3, 10.4, 10.68, 10.88, 10.18, 8.91, 8.24, 9.33, 8.4, 6.7, 5.58, 5.58, 11.5, 11.5, 12.14, 12.14, 12.56, 12.56, 12.98, 13.57, 13.57, 13.57, 13.99, 13.99, 13.7, 13.7, 13.7, 13.86, 13.86, 13.86, 13.43, 13.62, 14.03, 14.19, 14.19, 14.31, 14.31, 14.31, 13.99, 13.57, 13.57, 13.15, 12.87, 12.87, 13.28, 13.28, 13.28, 12.87, 12.87, 12.8, 13.23, 13.57, 13.2, 12.27, 11.35, 10.12, 9.57, 11.37, 13.04, 13.77, 12.07, 10.94, 11.16, 10.35, 8.63, 8.55, 8.14, 7.89, 7.63, 7.21, 6.98, 6.21, 5.36, 4.92, 4.66, 6.32, 3.4, 2.4, 3.6, 3.6, 5.06, 7.2, 8.24, 8.49, 9.39, 8.41, 9.29, 11.62, 13.83, 17.85, 15.65, 11.3, 8.94, 9.67, 10.55, 11.2, 10.73, 10.8, 10.38, 10.6, 10.27, 10.46, 10.46, 9.33, 9.33, 9.21, 7.89, 7.6, 7.6, 7.6, 11.5, 11.5, 12.14, 12.14, 12.56, 12.56, 12.98, 12.98, 13.15, 13.57, 13.57, 13.99, 13.7, 13.7, 13.7, 13.86, 13.86, 13.43, 13.43, 13.62, 14.03, 14.19, 14.19, 14.19, 14.31, 14.31, 13.89, 13.57, 13.15, 13.15, 12.45, 12.45, 12.45, 12.87, 13.28, 12.45, 12.45, 12.72, 12.72, 12.72, 12.93, 12.17, 10.99, 9.76, 9.56, 11.3, 13.33, 13.65, 12.72, 11.44, 10.24, 9.3, 8.05, 8.24, 8.14, 8.0, 7.35, 7.21, 7.37, 6.65, 5.75, 5.36, 4.85, 6.32, 4.22, 2.4, 4.46, 5.69, 5.95, 6.8, 7.81, 8.49, 8.94, 9.32, 9.16, 9.24, 11.62, 14.21, 15.82, 15.91, 15.65, 15.55, 15.08, 13.75, 12.46, 11.61, 10.75, 9.86, 10.05, 10.46, 10.46, 9.75, 9.75, 8.79, 8.22, 7.67, 7.67, 7.67, 11.5, 11.5, 11.92, 12.14, 12.56, 12.56, 12.98, 12.98, 13.57, 13.57, 13.57, 13.99, 13.7, 13.7, 13.7, 13.86, 13.86, 13.86, 13.43, 13.62, 14.03, 14.03, 14.19, 14.19, 14.31, 14.31, 13.89, 13.57, 12.87, 12.45, 12.45, 12.45, 12.33, 12.33, 12.33, 12.33, 11.92, 12.45, 12.72, 12.72, 12.63, 11.99, 10.94, 9.4, 9.52, 10.65, 12.4, 12.8, 12.89, 11.34, 10.38, 9.4, 8.0, 8.0, 7.73, 7.89, 7.63, 7.63, 7.42, 7.1, 6.71, 5.36, 5.31, 4.8, 5.69, 4.46, 4.46, 5.06, 6.8, 7.37, 8.94, 8.49, 8.94, 9.39, 9.76, 9.39, 10.28, 11.96, 13.65, 14.75, 16.96, 18.66, 20.36, 18.33, 13.8, 12.22, 11.03, 10.6, 10.18, 10.05, 11.03, 8.91, 9.33, 9.21, 8.79, 7.81, 7.81, 7.81, 11.5, 11.5, 11.92, 12.14, 12.14, 12.56, 12.56, 12.98, 13.39, 13.57, 13.57, 13.57, 13.7, 13.7, 13.7, 13.7, 13.86, 13.86, 13.43, 13.43, 13.62, 14.03, 14.19, 14.19, 14.19, 14.31, 13.89, 13.15, 12.87, 12.87, 12.45, 12.04, 11.92, 11.92, 11.92, 11.92, 11.92, 11.92, 12.45, 12.3, 11.92, 11.6, 10.94, 9.4, 9.3, 10.48, 11.88, 11.88, 12.04, 11.27, 10.5, 9.42, 8.56, 8.14, 7.71, 7.71, 7.85, 8.0, 7.55, 7.6, 7.15, 5.75, 5.16, 4.46, 4.46, 6.01, 5.69, 5.95, 6.32, 7.81, 8.05, 8.24, 8.94, 9.39, 9.39, 9.32, 10.23, 11.14, 11.96, 12.09, 13.7, 17.16, 19.95, 18.17, 16.09, 14.07, 11.99, 10.62, 10.0, 10.4, 9.2, 8.0, 8.4, 8.91, 8.79, 8.37, 8.37, 8.37, 11.5, 11.5, 11.92, 12.14, 12.56, 12.56, 12.56, 12.98, 12.98, 13.57, 13.57, 13.57, 13.48, 13.7, 13.7, 13.7, 13.86, 13.86, 13.43, 13.43, 13.62, 14.03, 14.03, 14.19, 14.19, 14.31, 13.89, 13.15, 12.74, 12.74, 12.45, 11.92, 11.92, 11.5, 11.5, 11.5, 11.5, 11.5, 11.92, 12.3, 11.92, 11.77, 11.6, 10.18, 9.3, 10.28, 11.04, 11.34, 11.5, 10.55, 9.77, 9.13, 8.56, 8.33, 7.89, 8.01, 8.0, 7.6, 8.05, 7.6, 7.1, 6.02, 5.16, 4.46, 3.79, 6.01, 6.8, 7.2, 7.6, 7.63, 8.06, 8.06, 8.24, 8.94, 9.26, 9.74, 10.28, 11.18, 11.49, 11.33, 12.04, 15.18, 19.81, 19.09, 17.43, 15.6, 13.19, 10.79, 10.0, 8.72, 7.58, 7.58, 7.96, 7.96, 8.99, 8.99, 8.99, 8.99, 11.5, 11.5, 11.92, 11.92, 12.14, 12.56, 12.98, 12.98, 12.98, 13.15, 13.57, 13.57, 13.07, 13.7, 13.7, 13.7, 13.7, 13.86, 13.43, 13.02, 13.02, 13.62, 14.03, 14.19, 14.19, 14.19, 13.89, 13.15, 12.74, 12.74, 12.33, 12.33, 11.92, 11.5, 11.5, 11.09, 11.09, 11.5, 11.5, 11.5, 11.5, 11.5, 11.2, 10.18, 9.3, 10.28, 10.87, 11.34, 10.8, 10.0, 9.77, 9.66, 9.06, 8.8, 8.01, 7.56, 7.6, 7.6, 7.6, 7.6, 7.52, 6.64, 5.09, 4.22, 3.48, 5.69, 6.8, 6.8, 8.05, 8.05, 8.94, 8.06, 8.67, 9.39, 9.39, 9.83, 9.83, 10.23, 10.56, 10.84, 11.49, 13.29, 17.14, 19.37, 19.63, 16.94, 13.23, 10.35, 9.38, 7.81, 7.87, 7.51, 7.13, 7.13, 7.51, 7.96, 7.96, 7.96, 11.5, 11.5, 11.92, 11.92, 11.92, 12.56, 12.98, 12.98, 12.98, 13.57, 13.57, 13.07, 13.48, 13.7, 13.7, 13.7, 13.7, 13.86, 13.43, 13.43, 13.43, 13.62, 14.03, 14.03, 14.19, 13.77, 13.77, 13.15, 12.74, 12.33, 12.33, 12.33, 11.92, 11.5, 11.5, 11.09, 11.09, 11.09, 11.09, 11.5, 11.5, 11.5, 11.36, 10.43, 9.4, 10.41, 11.04, 11.2, 10.23, 9.6, 9.03, 8.95, 9.24, 9.06, 8.46, 8.01, 7.6, 7.15, 7.15, 7.6, 7.6, 6.64, 5.29, 4.57, 3.93, 4.74, 4.74, 6.79, 7.6, 8.24, 8.67, 9.39, 9.39, 9.11, 9.21, 9.26, 9.29, 9.76, 10.23, 10.68, 10.7, 11.59, 12.68, 17.14, 19.19, 17.84, 8.73, 7.54, 7.37, 7.35, 6.79, 6.45, 6.45, 6.11, 6.44, 6.44, 6.44, 6.44, 11.5, 11.5, 11.92, 11.92, 11.92, 12.56, 12.98, 12.98, 12.98, 13.39, 13.57, 13.07, 13.48, 13.48, 13.7, 13.7, 13.7, 13.86, 13.43, 13.43, 13.43, 13.62, 14.03, 14.03, 13.77, 13.77, 13.77, 12.99, 12.74, 12.74, 12.33, 12.33, 11.92, 11.5, 11.5, 11.09, 11.09, 11.09, 10.96, 11.09, 11.09, 11.09, 10.96, 10.8, 10.18, 10.41, 11.04, 10.66, 10.23, 9.27, 9.03, 8.43, 8.95, 8.67, 8.38, 8.02, 8.01, 7.56, 7.15, 7.15, 7.15, 6.26, 5.36, 5.26, 4.77, 5.94, 5.6, 6.36, 7.15, 7.63, 7.6, 8.0, 9.11, 9.83, 9.11, 9.21, 9.26, 9.29, 9.33, 9.83, 10.28, 10.28, 11.14, 12.94, 17.88, 14.99, -0.0, -0.0, 3.72, 5.36, 5.75, 5.46, 4.81, 5.58, 5.58, 5.82, 5.82, 5.82, 11.5, 11.5, 11.5, 11.92, 11.92, 12.14, 12.56, 12.98, 12.98, 13.39, 13.57, 13.48, 13.48, 13.48, 13.7, 13.7, 13.7, 13.7, 13.43, 13.43, 13.43, 13.43, 13.62, 13.62, 13.62, 13.77, 13.77, 12.99, 12.74, 12.74, 12.33, 12.33, 11.92, 11.92, 11.5, 11.09, 10.96, 10.55, 10.55, 10.55, 11.09, 11.09, 11.09, 10.4, 10.18, 10.12, 10.79, 10.66, 10.04, 9.43, 8.42, 8.43, 8.43, 8.14, 8.06, 7.81, 7.94, 7.57, 7.56, 6.66, 6.71, 5.81, 5.36, 5.36, 5.36, 5.36, 6.71, 6.26, 6.71, 6.79, 6.32, 7.6, 6.64, 8.18, 9.83, 9.21, 9.26, 8.85, 9.39, 9.39, 9.83, 9.83, 10.28, 11.62, 18.25, 16.54, -8.58, -4.14, -0.0, 4.66, 5.81, 7.21, 5.6, 4.92, 5.81, 6.94, 6.94, 6.94, 11.2, 11.2, 11.5, 11.92, 11.92, 11.92, 12.56, 12.98, 12.98, 13.39, 13.39, 13.48, 13.48, 13.48, 13.48, 13.7, 13.7, 13.7, 13.43, 13.43, 13.43, 13.43, 13.62, 13.62, 13.62, 13.77, 13.35, 12.99, 12.58, 12.33, 12.33, 11.92, 11.92, 11.92, 11.5, 10.96, 10.96, 10.55, 10.55, 10.55, 10.68, 10.68, 10.68, 10.55, 10.4, 9.81, 10.04, 10.04, 10.04, 9.43, 8.79, 8.82, 8.43, 8.4, 8.14, 7.98, 7.81, 7.92, 7.48, 7.01, 6.23, 5.78, 5.75, 5.81, 5.81, 5.81, 6.71, 6.26, 6.71, 7.15, 7.37, 7.2, 6.01, 6.32, 9.83, 9.39, 9.39, 8.94, 9.32, 9.33, 9.79, 9.79, 10.25, 17.72, 18.91, 15.19, -9.66, -4.83, -1.41, 3.16, 4.92, 5.06, -0.0, -0.0, 5.37, 8.49, 8.49, 8.49, 11.2, 11.2, 11.5, 11.5, 11.92, 11.92, 12.56, 12.56, 12.98, 12.98, 13.39, 13.07, 13.48, 13.48, 13.48, 13.7, 13.7, 13.7, 13.19, 13.84, 13.43, 13.43, 13.62, 13.62, 13.62, 13.2, 13.35, 12.99, 12.58, 12.18, 12.33, 11.92, 11.92, 11.5, 11.36, 10.96, 10.96, 10.55, 10.55, 10.15, 10.55, 10.68, 10.68, 10.55, 10.0, 9.43, 9.81, 9.67, 9.81, 9.16, 8.79, 8.55, 8.18, 8.8, 8.4, 8.4, 7.98, 7.98, 7.76, 7.48, 6.58, 6.11, 6.07, 6.2, 6.17, 6.14, 5.81, 5.81, 6.94, 7.15, 7.6, 8.49, 8.06, 7.2, 6.8, 8.48, 8.67, 8.82, 9.11, 8.91, 8.99, 9.64, 11.51, 17.28, 18.24, 13.76, -6.71, -5.03, -2.2, -0.0, -0.0, -0.0, -0.0, -0.0, -0.0, 8.94, 8.94, 8.94, 11.2, 11.2, 11.2, 11.5, 11.5, 11.92, 12.56, 12.98, 12.98, 12.98, 12.98, 12.79, 13.48, 13.48, 13.48, 13.48, 13.7, 13.7, 13.19, 13.84, 13.84, 13.43, 13.43, 13.62, 13.2, 13.2, 13.35, 12.58, 12.58, 12.18, 12.18, 11.77, 11.77, 11.36, 11.36, 10.96, 10.96, 10.55, 10.55, 10.15, 10.15, 10.68, 10.68, 10.27, 10.0, 9.42, 9.05, 9.05, 9.05, 8.79, 8.47, 8.55, 8.18, 8.6, 8.6, 8.72, 8.3, 8.3, 7.89, 7.06, 6.85, 6.58, 6.11, 6.02, 6.36, 6.61, 6.58, 5.81, 7.15, 7.15, 8.05, 8.49, 8.94, 8.94, 8.94, 7.07, 7.2, 7.44, 8.4, 8.58, 8.17, 8.58, 10.6, 15.05, 16.6, 0.0, -6.01, -4.19, -3.63, -2.2, -2.8, -0.0, -0.0, -0.0, -0.0, 8.49, 8.49, 8.49, 11.2, 11.2, 11.2, 11.5, 11.5, 11.5, 11.92, 12.56, 12.56, 12.56, 12.98, 12.79, 13.07, 13.48, 13.48, 13.48, 13.7, 13.7, 13.19, 13.59, 13.84, 13.84, 13.84, 13.62, 13.2, 13.2, 12.79, 12.58, 12.58, 12.18, 11.77, 11.77, 11.36, 11.36, 11.36, 10.96, 10.96, 10.55, 10.15, 10.15, 10.15, 10.15, 10.27, 10.27, 9.74, 9.42, 9.05, 9.05, 8.67, 8.42, 8.12, 8.55, 8.99, 8.6, 8.6, 8.58, 8.72, 8.3, 7.89, 7.47, 7.47, 6.85, 6.36, 6.28, 6.16, 6.36, 6.61, 6.71, 6.26, 7.6, 7.6, 8.05, 8.49, 8.94, 8.48, 8.0, 7.15, 7.44, 7.58, 7.58, 7.58, 8.17, 9.54, 12.37, 13.99, -13.59, -6.6, -4.81, -4.43, -3.79, -3.97, -6.01, -6.64, -6.64, -6.64, -6.64, -6.64, -6.64, 11.2, 11.2, 11.2, 11.2, 11.92, 11.92, 11.92, 12.14, 12.56, 12.56, 12.39, 12.79, 12.79, 13.48, 13.48, 13.48, 13.48, 13.19, 13.19, 13.19, 13.84, 13.84, 13.84, 13.43, 13.2, 12.79, 12.79, 12.39, 12.18, 12.18, 11.77, 11.36, 11.36, 11.36, 10.96, 10.96, 10.96, 10.55, 10.55, 10.15, 10.15, 10.15, 10.15, 10.27, 9.74, 9.6, 9.42, 8.67, 8.42, 8.42, 8.12, 8.55, 8.72, 8.34, 8.34, 8.99, 8.58, 8.3, 8.17, 7.42, 7.03, 7.06, 6.64, 6.79, 6.57, 6.4, 6.79, 7.06, 6.71, 7.15, 7.6, 7.37, 7.81, 7.81, 7.6, 6.79, 6.63, 7.44, 7.28, 7.58, 7.2, 7.82, 8.72, 10.18, 12.79, -10.75, -9.33, -5.21, -4.81, -5.37, -6.32, -6.64, -7.81, -6.64, -8.4, -8.4, -8.4, -8.4, 11.2, 11.2, 11.2, 11.2, 11.92, 11.92, 11.92, 12.33, 12.56, 12.56, 12.39, 12.39, 12.79, 13.48, 13.48, 13.48, 13.48, 13.19, 13.19, 13.59, 13.59, 13.84, 13.84, 13.43, 12.79, 12.79, 12.39, 12.39, 12.18, 11.77, 11.77, 11.36, 11.36, 10.96, 10.96, 10.96, 10.55, 10.55, 10.55, 10.15, 10.15, 10.15, 10.15, 9.86, 9.74, 9.6, 9.42, 8.42, 8.42, 8.42, 8.12, 7.87, 8.72, 8.34, 8.34, 8.8, 8.58, 8.58, 8.17, 7.76, 7.03, 6.64, 6.25, 6.54, 6.4, 6.21, 6.4, 6.79, 7.06, 7.01, 7.15, 7.15, 7.15, 7.37, 6.44, 6.01, 6.01, 6.01, 6.91, 7.2, 8.0, 8.21, 8.4, 9.9, 12.66, 0.0, -12.52, -7.2, -5.21, -7.07, -7.33, -8.43, -8.4, -8.91, -8.91, -8.91, -8.91, -8.91, 10.73, 10.73, 11.2, 11.2, 11.92, 11.92, 11.92, 12.33, 12.33, 12.56, 12.39, 12.39, 12.79, 12.79, 13.48, 13.07, 13.07, 12.9, 13.19, 13.19, 13.59, 13.84, 13.84, 13.84, 12.56, 12.39, 12.39, 12.39, 11.99, 11.77, 11.77, 11.36, 11.36, 10.96, 10.96, 10.96, 10.96, 10.55, 10.55, 10.15, 10.15, 10.15, 9.74, 9.74, 9.74, 9.6, 9.03, 8.42, 8.42, 8.42, 8.12, 7.87, 7.87, 8.34, 8.34, 8.4, 8.58, 8.58, 8.58, 7.82, 7.42, 7.03, 6.64, 6.25, 6.07, 6.21, 5.95, 6.8, 7.21, 7.08, 6.26, 7.6, 7.15, 7.15, 7.45, 6.9, 6.63, 6.01, 6.87, 8.0, 8.0, 8.21, 8.8, 9.9, 12.62, 7.82, -12.39, -10.73, -7.6, -7.6, -8.4, -8.8, -9.13, -9.54, -9.11, -9.39, -9.39, -9.39, 10.73, 10.73, 11.2, 11.2, 11.2, 11.92, 11.92, 11.92, 12.33, 12.56, 12.39, 12.39, 12.79, 12.79, 13.07, 13.07, 12.5, 12.5, 13.19, 13.19, 13.19, 13.59, 13.84, 12.95, 12.56, 12.17, 12.39, 11.99, 11.99, 11.6, 11.6, 11.36, 10.96, 10.96, 10.96, 10.8, 10.8, 10.4, 10.4, 10.4, 10.0, 10.15, 10.15, 9.74, 9.74, 9.6, 9.03, 8.82, 8.42, 8.42, 7.76, 7.87, 7.87, 8.34, 8.34, 8.4, 8.4, 8.17, 8.21, 7.82, 7.82, 7.2, 7.03, 6.32, 6.08, 6.44, 6.6, 6.32, 7.2, 7.21, 6.64, 7.6, 6.71, 7.6, 7.15, 7.45, 6.9, 6.01, 6.52, 7.28, 7.58, 7.81, 8.43, 9.42, 11.38, 12.37, -2.81, -10.79, -10.28, -9.7, -9.26, -9.26, -9.7, -9.21, -9.39, -8.94, -8.94, -8.94, 10.73, 10.73, 11.12, 11.6, 11.6, 11.6, 11.92, 11.92, 11.92, 11.64, 11.99, 12.39, 12.79, 12.79, 12.79, 13.07, 12.5, 12.5, 12.5, 13.19, 13.19, 13.19, 12.95, 12.95, 12.56, 12.17, 12.39, 11.99, 11.99, 11.6, 11.6, 11.2, 10.8, 10.8, 10.8, 10.4, 10.4, 10.4, 10.4, 10.0, 10.0, 10.0, 10.15, 9.74, 9.74, 9.6, 9.42, 8.82, 8.42, 8.42, 7.76, 7.87, 7.87, 8.34, 7.96, 8.4, 8.4, 8.17, 7.82, 7.82, 7.82, 7.42, 7.2, 6.44, 6.08, 6.08, 6.18, 6.18, 6.7, 6.8, 6.16, 5.59, 5.36, 7.6, 6.71, 7.45, 6.9, 6.01, 5.44, 6.01, 6.73, 7.41, 8.42, 8.79, 10.6, 11.9, 6.2, -4.48, -10.0, -9.64, -9.39, -9.83, -9.39, -8.94, -8.94, -8.94, -8.94, -8.94, 10.73, 10.73, 11.12, 11.6, 11.6, 11.6, 11.92, 11.92, 11.92, 11.64, 11.99, 12.39, 12.79, 12.79, 12.79, 13.07, 12.5, 12.5, 12.5, 13.19, 13.19, 13.19, 12.95, 12.95, 12.56, 12.17, 12.39, 11.99, 11.99, 11.6, 11.6, 11.2, 10.8, 10.8, 10.8, 10.4, 10.4, 10.4, 10.4, 10.0, 10.0, 10.0, 10.15, 9.74, 9.74, 9.6, 9.42, 8.82, 8.42, 8.42, 7.76, 7.87, 7.87, 8.34, 7.96, 8.4, 8.4, 8.17, 7.82, 7.82, 7.82, 7.42, 7.2, 6.44, 6.08, 6.08, 6.18, 6.18, 6.7, 6.8, 6.16, 5.59, 5.36, 7.6, 6.71, 7.45, 6.63, 6.01, 5.44, 6.01, 6.73, 7.76, 8.42, 8.79, 9.58, 10.79, 9.48, 2.06, -5.98, -8.94, -9.2, -9.21, -9.39, -9.39, -9.39, -9.39, -9.39, -9.39]}, {"header": {"dx": 0.06612293990616946, "dy": 0.0552356325346848, "nx": 98, "ny": 59, "la1": 35.046912555036876, "la2": 31.78801023549047, "lo1": -121.43107172385933, "lo2": -114.95102361305473, "refTime": "2026040917", "parameterCategory": 1, "parameterNumber": 3}, "data": [-5.48, -6.6, -6.6, -6.6, -6.6, -6.6, -6.6, -6.6, -8.85, -8.18, -4.38, -3.68, -3.04, -2.71, 0.0, 0.0, 0.0, 0.0, 0.0, 0.0, 0.0, 0.0, -6.32, 0.0, -0.0, 5.06, 2.8, -0.0, -0.0, -1.98, -3.72, -4.43, -5.21, -6.0, -6.51, -6.26, -7.15, -6.79, -6.8, -5.69, -3.8, -3.65, -5.98, -8.3, -8.58, -8.46, -9.88, -10.83, -9.43, -7.2, -1.83, 0.0, 0.0, 1.07, 3.08, 3.98, 4.62, 4.47, 4.47, 3.68, 2.61, 2.82, 2.71, 2.94, 3.06, 2.82, 2.82, 2.71, 3.42, 3.44, 2.62, 2.71, 2.82, 2.0, 1.84, 1.93, 1.18, 0.0, 0.0, -3.04, -4.6, -5.06, -4.11, -5.2, -6.26, -5.2, -3.6, -2.06, -1.67, -2.17, -2.23, -3.53, -2.71, -1.71, 0.0, 3.96, 5.52, 6.42, -5.31, -5.48, -6.6, -6.6, -6.6, -6.6, -6.8, -9.12, -10.43, -10.43, -7.44, -4.1, -2.82, -2.6, -3.68, 0.0, 0.0, 0.0, 0.0, -2.39, 0.0, 0.0, -6.64, -8.94, -0.0, -0.0, -0.0, -0.0, -0.0, -3.0, -4.74, -5.21, -5.64, -5.64, -6.26, -7.15, -7.89, -7.81, -8.06, -7.44, -5.9, -6.97, -8.3, -10.12, -10.68, -11.64, -11.63, -10.15, -6.31, -1.9, 0.0, 0.0, 1.23, 2.1, 3.67, 4.62, 4.62, 4.47, 4.47, 3.42, 3.42, 2.61, 2.71, 2.82, 2.82, 2.82, 2.82, 2.71, 2.71, 3.44, 3.56, 2.62, 2.61, 1.84, 1.76, 0.89, 1.01, 0.0, 0.0, -3.04, -4.6, -5.06, -4.11, -5.2, -6.26, -5.2, -3.6, -2.06, -1.67, -2.17, -2.23, -3.53, -2.71, -1.71, 0.0, 3.96, 5.52, 6.42, -5.31, -5.48, -6.6, -6.6, -8.85, -8.85, -9.12, -9.12, -10.75, -10.12, -8.85, -5.7, -5.2, -5.2, -4.8, -2.6, -2.19, -2.19, -2.19, -3.53, 0.0, 0.0, 0.0, -7.27, -8.94, -3.2, -0.0, -0.0, -0.0, -5.06, -6.8, -7.15, -7.15, -7.6, -6.51, -8.06, -7.89, -8.77, -8.72, -8.82, -8.22, -9.21, -11.38, -12.08, -12.71, -11.45, -8.43, -5.27, 0.0, 0.0, 0.0, 1.14, 2.33, 3.08, 4.44, 4.62, 4.3, 4.47, 3.42, 3.42, 3.42, 3.42, 3.29, 3.68, 3.68, 3.68, 3.55, 3.55, 3.32, 2.45, 2.54, 1.71, 0.89, 0.86, 0.89, 0.0, 0.0, 0.0, 0.0, -2.63, -4.6, -3.6, -6.8, -6.71, -5.81, -7.15, -7.2, -4.71, -4.0, -3.99, -4.65, -5.27, -4.39, -1.71, 1.98, 3.39, 4.2, 4.2, -5.31, -5.31, -5.48, -8.85, -8.85, -8.85, -9.12, -9.12, -11.8, -11.09, -8.53, -7.59, -5.4, -5.0, -6.71, -6.71, -5.98, -6.21, -3.82, -2.19, -2.19, -3.25, 0.0, -3.68, -7.59, -9.83, -5.06, -3.2, -5.06, -7.6, -8.49, -8.94, -8.48, -6.32, -7.44, -7.81, -8.8, -10.38, -10.4, -11.37, -12.03, -13.28, -12.17, -10.78, -7.8, -5.23, -2.5, 0.0, 0.0, 0.89, 0.85, 1.93, 2.95, 3.51, 4.44, 4.13, 3.53, 3.68, 3.42, 3.42, 3.42, 3.42, 3.42, 4.17, 4.17, 4.17, 3.19, 3.68, 3.6, 3.66, 2.55, 1.95, 1.05, 0.0, 0.0, 0.0, 0.0, 0.0, 0.0, -2.2, -3.15, -3.47, -5.06, -5.94, -8.05, -8.94, -7.44, -6.01, -5.2, -6.44, -6.4, -5.8, -3.32, 0.0, 1.54, 3.11, 2.58, 2.46, -5.31, -5.31, -7.59, -8.85, -8.85, -8.85, -9.12, -10.75, -10.43, -11.09, -9.66, -7.59, -6.45, -5.0, -5.52, -7.26, -8.22, -7.54, -5.4, -6.21, -5.6, -5.95, -3.39, -5.2, -7.59, -7.9, -9.83, -9.39, -9.39, -8.49, -8.94, -8.8, -6.45, -5.98, -5.0, -6.71, -7.9, -9.17, -13.68, -15.72, -15.01, -11.58, -7.82, -4.98, -3.41, -1.98, -0.97, 0.0, 0.0, 0.85, 1.69, 1.69, 2.49, 3.25, 3.39, 3.53, 3.53, 3.68, 3.42, 3.42, 3.42, 3.42, 4.01, 4.01, 4.17, 3.91, 4.06, 4.06, 4.93, 4.71, 4.16, 3.58, 2.0, 0.0, 0.0, -0.74, -0.85, -1.05, -1.58, -3.81, -3.45, -3.22, -4.74, -6.94, -7.6, -7.6, -6.32, -5.2, -6.97, -7.93, -6.0, -3.32, 0.0, 1.75, 1.84, 1.33, 0.0, 0.0, -5.31, -7.36, -7.36, -7.59, -8.85, -8.85, -9.12, -10.43, -10.43, -11.88, -9.66, -8.23, -6.2, -4.8, -5.75, -6.98, -8.22, -8.53, -7.73, -8.01, -7.82, -8.53, -9.48, -9.17, -8.53, -8.53, -5.2, -10.0, -10.73, -10.73, -9.39, -6.64, -4.4, -3.82, -3.25, -3.25, -3.56, -4.38, -13.61, -17.81, -14.71, -11.17, -6.63, -4.65, -3.29, -3.04, -1.98, -0.89, 0.0, 0.0, 0.93, 0.89, 1.76, 1.76, 1.84, 2.61, 2.82, 2.82, 2.61, 2.61, 2.82, 3.53, 4.3, 4.01, 4.17, 4.06, 3.91, 4.17, 4.21, 4.71, 4.04, 4.04, 3.79, 2.19, 0.0, 0.0, -0.89, 0.0, 0.0, -3.32, -3.63, -5.06, -5.59, -6.52, -7.63, -7.07, -6.11, -7.51, -7.58, -7.69, -2.45, 0.0, 4.2, 3.8, 1.84, 0.0, 0.0, 0.0, -7.36, -7.36, -7.36, -7.59, -7.59, -8.85, -10.43, -10.43, -11.17, -11.88, -10.35, -8.8, -5.95, -4.8, -5.4, -5.75, -7.73, -8.01, -8.85, -8.85, -7.78, -5.63, -2.43, -3.79, -4.81, -6.6, -6.8, 0.0, -9.17, -10.73, -10.73, -8.4, -4.4, -3.11, -3.68, -1.53, -1.77, 0.0, 0.0, -13.41, -14.3, -10.79, -8.05, -6.0, -4.05, -3.73, -2.24, -2.08, -1.05, 0.0, 0.0, 0.0, 0.0, 0.0, 0.97, 0.97, 1.91, 1.91, 1.77, 1.84, 2.82, 3.82, 3.53, 3.29, 3.42, 4.06, 3.19, 3.29, 3.19, 3.14, 3.36, 3.17, 3.01, 2.64, 2.34, 1.3, 1.38, 0.85, 0.0, -0.89, -4.22, -6.01, -7.21, -7.56, -8.73, -9.3, -8.24, -7.34, -5.63, -2.54, 5.6, 10.8, 7.2, 6.01, 0.0, 0.0, -1.39, 0.0, -7.13, -7.36, -7.36, -7.36, -7.59, -10.43, -10.43, -10.43, -11.17, -11.99, -10.0, -9.13, -9.2, -7.9, -7.51, -6.98, -7.02, -7.54, -8.44, -8.73, -6.0, -2.63, 0.0, 0.0, 0.0, 0.0, 0.0, 7.2, 0.0, -9.48, -10.8, -8.53, -6.94, -5.6, -2.71, -3.04, -1.61, 0.0, 10.4, 10.4, 12.96, 0.0, 0.0, 0.0, 0.0, 0.0, 0.0, 0.0, 0.0, 0.0, 0.0, 0.0, 0.0, 0.0, 0.0, 0.0, 0.0, 0.97, 0.97, 0.97, 1.91, 1.76, 1.76, 2.41, 2.41, 2.44, 2.53, 1.58, 1.7, 1.6, 2.39, 2.33, 1.62, 1.67, 2.01, 2.15, 2.13, 1.0, 0.0, -1.1, -3.79, -7.73, -7.56, -7.59, -8.53, -8.54, -6.94, -5.45, -3.14, 0.0, 9.3, 6.07, 6.8, 3.8, 0.0, -1.2, -1.39, 0.0, -7.13, -7.36, -7.36, -7.36, -7.59, -9.22, -9.22, -11.52, -11.17, -10.79, -10.68, -10.88, -12.04, -11.92, -10.87, -10.41, -9.96, -9.48, -8.73, -8.59, -6.9, -4.24, -1.72, -1.77, -1.61, 0.0, 2.39, 4.38, 0.0, -4.52, -6.2, 0.0, 0.0, 0.0, 0.0, 0.0, 0.0, 3.53, 10.28, 9.97, 12.96, 13.99, 10.43, 6.94, 5.2, 3.07, 2.37, 1.84, 2.49, 1.18, 0.0, 0.0, 0.0, 0.0, 0.0, 0.0, 0.0, 0.0, 0.0, 0.0, 0.0, 0.0, 0.0, 0.85, 0.79, 1.58, 0.8, 0.83, 0.82, 0.8, 0.83, 0.74, 0.0, 0.0, 0.0, 0.0, 0.0, 0.0, 0.0, -0.95, -3.47, -7.58, -6.95, -6.32, -5.98, -6.16, -4.9, -3.68, -1.18, 0.0, 1.84, 4.11, 3.72, 0.0, 0.0, -1.2, -1.62, 0.0, -6.2, -6.2, -6.4, -6.4, -9.22, -9.22, -9.22, -10.43, -10.99, -10.55, -10.61, -10.79, -9.53, -10.59, -12.39, -11.99, -12.5, -12.9, -12.81, -11.99, -11.6, -10.12, -10.82, -8.94, -8.58, -5.2, 0.0, 3.39, 4.66, 0.0, 6.6, 16.54, 15.18, 12.39, 7.24, 2.19, 2.97, 9.26, 10.28, 8.94, 10.52, 12.04, 9.58, 7.51, 4.37, 3.8, 2.33, 2.49, 3.53, 3.11, 1.93, 2.02, 0.97, 0.0, 0.0, 0.0, -0.97, -0.97, -0.97, -0.97, -0.93, 0.0, 0.0, 0.0, 0.85, 0.82, 0.83, 0.0, 0.0, -0.89, -0.83, -0.74, -0.75, -0.82, -0.84, -1.61, -2.44, -2.44, -2.22, -1.63, -2.87, -5.56, -8.73, -5.37, -5.15, -4.66, -3.61, -2.23, -1.14, 0.0, 0.78, 0.88, 0.0, 0.0, -1.2, -1.16, -1.69, 0.0, -6.2, -6.2, -6.4, -6.6, -8.18, -9.22, -9.22, -10.43, -10.99, -10.18, -10.37, -10.94, -9.8, -8.15, -9.31, -10.86, -13.27, -13.27, -12.52, -13.59, -14.51, -14.78, -14.75, -12.27, -11.8, -3.14, 0.0, 3.25, 7.19, 7.69, 10.79, 12.96, 12.07, 10.96, 8.94, 6.7, 9.67, 9.83, 7.06, 6.64, 6.64, 8.8, 9.2, 8.8, 6.64, 3.8, 1.67, 1.2, 1.05, 1.94, 1.84, 1.68, 0.89, 0.93, 0.0, -0.93, -1.91, -3.18, -3.18, -3.06, -1.11, 0.0, 2.21, 2.28, 2.13, 0.97, 0.86, 0.0, -1.84, -3.55, -4.21, -3.66, -3.83, -3.83, -3.91, -3.91, -4.81, -4.33, -4.49, -4.24, -3.48, -3.16, -6.29, -9.84, -6.87, -3.97, -3.35, -2.06, -1.22, -1.05, 0.0, 0.0, -1.1, -1.1, -1.95, -2.23, -1.39, 0.0, -6.2, -6.2, -6.4, -6.6, -8.18, -8.18, -8.18, -9.44, -10.12, -10.18, -10.09, -10.36, -9.87, -7.93, -5.28, -4.49, -3.29, -4.66, -4.62, -4.47, -3.72, -3.62, -2.8, -2.28, 0.0, 0.0, 2.06, 1.96, 2.4, 3.72, 6.01, 6.51, 6.71, 6.26, 10.73, 9.97, 10.08, 7.45, 7.06, 6.9, 6.52, 7.06, 9.11, 9.39, 6.32, 2.54, 0.0, 0.0, 0.0, 0.0, 0.0, 0.99, 1.75, 1.6, 0.85, 0.0, 0.0, -2.37, -4.93, -2.02, 6.32, 7.28, 7.81, 6.3, 5.45, 3.98, 3.68, 1.98, 0.0, -3.53, -5.2, -5.89, -5.8, -5.8, -5.8, -5.62, -5.8, -5.6, -5.93, -6.0, -4.97, -3.02, -3.29, -9.6, -8.73, -7.21, -5.72, -4.2, -2.46, -2.46, -1.84, -0.94, -1.01, -1.84, -2.69, -3.25, -2.39, 0.0, -6.2, -6.2, -6.4, -6.6, -8.18, -8.18, -8.18, -9.16, -9.16, -9.02, -9.8, -10.12, -9.87, -8.43, -6.62, -4.53, -1.77, -0.89, 0.0, 0.0, 0.0, 0.0, 0.67, 0.67, 1.26, 1.67, 1.69, 1.71, 1.36, 0.79, 0.0, 2.32, 5.6, 5.81, 6.26, 6.26, 6.71, 6.32, 6.8, 7.06, 7.21, 7.06, 9.21, 8.94, 8.49, 5.69, 3.6, 0.0, 0.0, 0.0, 0.0, 0.0, 0.94, 1.65, 2.83, 2.97, 2.97, 2.02, -8.22, 5.37, 9.32, 9.6, 8.79, 8.15, 7.47, 7.59, 7.36, 6.08, 3.82, 1.28, -2.42, -4.36, -5.52, -6.57, -7.1, -5.99, -6.67, -6.21, -6.72, -5.4, -4.13, -3.68, -3.68, -4.58, -9.5, -10.19, -8.93, -7.68, -5.06, -3.8, -3.35, -1.96, -2.09, -1.96, -3.45, -2.83, -1.75, 0.0, -6.2, -6.2, -6.2, -6.4, -8.18, -7.93, -7.1, -8.31, -8.31, -9.31, -9.42, -9.5, -9.22, -8.94, -7.98, -5.65, -4.54, -2.64, -1.72, -0.84, 0.0, 0.0, 0.0, 0.74, 0.71, 1.42, 2.02, 2.02, 2.2, 0.89, 0.0, 0.0, 2.06, 5.21, 5.94, 5.94, 5.21, 5.06, 5.06, 6.8, 7.45, 7.15, 10.28, 11.18, 9.83, 9.33, 5.69, 3.11, 2.6, 2.1, 0.0, 0.0, 3.25, 9.8, 8.85, 9.08, 5.63, 1.54, 0.0, 6.52, 9.64, 10.28, 10.14, 9.7, 8.79, 8.34, 7.35, 7.27, 6.98, 5.9, 4.8, 1.71, -3.53, -6.95, -7.87, -6.71, -6.44, -5.29, -4.4, -4.88, -4.4, -4.99, -4.81, -4.52, -6.94, -9.48, -11.6, -10.52, -8.0, -4.75, -5.21, -4.22, -3.55, -2.51, -3.32, -2.7, -1.75, -0.84, -6.2, -6.2, -6.2, -5.63, -5.63, -7.1, -7.1, -8.31, -8.31, -7.58, -8.58, -9.06, -9.22, -8.94, -8.43, -6.99, -5.5, -4.43, -3.49, -1.73, -0.84, -0.8, 0.0, 0.0, 0.77, 1.57, 2.28, 2.93, 2.15, 1.54, 0.0, -0.96, 0.0, 1.84, 5.06, 5.37, 5.69, 4.56, 4.71, 5.95, 7.37, 8.49, 10.73, 10.73, 8.94, 8.94, 8.48, 6.01, 4.96, 5.46, 2.49, 2.49, 8.18, 8.49, 7.15, 7.21, 2.4, 0.0, 1.84, 8.94, 8.67, 9.39, 8.94, 8.94, 9.21, 9.13, 6.95, 6.14, 6.14, 5.46, 4.78, 6.2, 8.22, -0.0, -0.0, -0.0, -0.0, 0.0, 0.0, -5.7, -5.06, -5.46, -3.81, -3.98, -2.95, -5.6, -9.48, -10.96, -9.21, -6.79, -6.14, -6.52, -5.06, -4.42, -3.27, -2.44, -1.75, -1.75, -6.2, -5.46, -5.46, -5.63, -5.63, -7.1, -7.1, -7.1, -7.58, -7.58, -8.85, -8.18, -8.46, -8.94, -8.68, -7.2, -5.81, -4.79, -4.55, -3.41, -2.51, -1.6, 0.0, 0.0, 0.79, 2.23, 2.23, 2.08, 2.02, 1.38, 0.0, -1.78, -2.11, 0.0, 0.0, 4.29, 3.91, 3.91, 2.54, 7.2, 6.94, 7.15, 8.05, 8.05, 8.05, 8.05, 8.49, 8.05, 8.05, 7.63, 6.01, 6.32, 7.81, 8.05, 7.21, 6.4, 2.4, 2.06, 5.36, 9.21, 8.82, 8.91, 8.49, 8.05, 7.21, 6.7, 5.37, 5.63, 6.14, 4.2, 1.84, 3.11, 3.04, 1.91, 5.0, 9.3, 12.07, 12.07, 0.0, -7.59, -9.75, -7.87, -5.59, -3.8, -3.6, -2.54, -4.05, -6.95, -7.89, -6.44, -7.33, -6.21, -5.37, -4.46, -4.6, -4.28, -3.8, -3.8, -5.46, -5.46, -5.63, -5.46, -5.46, -7.1, -7.1, -6.6, -7.58, -7.58, -7.82, -8.18, -7.82, -8.16, -7.88, -7.42, -5.81, -5.81, -4.79, -3.69, -2.58, -1.6, -0.77, 0.0, 1.53, 2.17, 1.39, 0.67, 0.67, 0.0, 0.0, -1.78, -4.15, -3.93, 0.0, 2.49, 4.29, 3.97, 5.06, 7.21, 7.15, 6.71, 8.49, 8.05, 8.4, 8.48, 8.94, 8.49, 8.49, 8.49, 8.94, 8.94, 8.94, 8.0, 8.0, 8.0, 6.32, 8.91, 9.39, 10.28, 10.28, 9.39, 8.49, 8.05, 7.2, 5.58, 5.37, 4.46, 1.75, 1.33, 0.0, 0.0, -0.0, 2.82, 11.03, 11.84, 9.77, 8.1, 4.65, 0.0, -7.59, -9.54, -8.77, -7.47, -6.79, -5.69, -2.33, -4.37, -5.31, -5.31, -8.4, -7.74, -6.8, -6.01, -6.31, -5.86, -5.38, -5.38, -5.46, -5.46, -5.63, -5.63, -5.46, -6.88, -6.4, -6.4, -6.6, -7.82, -7.16, -7.38, -7.82, -7.28, -7.66, -6.37, -7.0, -5.98, -4.93, -2.87, -1.68, -1.6, -1.56, 0.0, 1.56, 1.46, 0.0, -0.72, -0.69, -1.45, -2.25, -3.51, -6.28, -6.19, -2.72, 0.0, 3.0, 4.43, 6.36, 7.15, 7.6, 8.05, 8.05, 8.49, 8.94, 9.39, 8.94, 8.94, 8.94, 9.39, 9.39, 9.39, 9.39, 8.4, 8.0, 8.4, 9.39, 9.39, 9.83, 9.83, 9.83, 9.39, 8.94, 8.49, 8.49, 6.79, 4.43, 0.0, -3.65, -2.71, -1.71, 2.82, 11.71, 10.01, 9.62, 8.15, 8.54, 7.19, 6.3, 5.4, 3.07, 0.0, -8.48, -9.39, -9.39, -8.33, -6.98, -4.71, -4.71, -5.7, -8.43, -8.17, -7.21, -7.44, -7.27, -6.95, -6.64, -6.64, -5.46, -5.46, -5.46, -5.63, -4.87, -4.87, -6.4, -6.4, -6.6, -7.16, -7.16, -7.38, -7.0, -7.49, -8.16, -7.6, -6.99, -6.56, -4.3, -1.89, -2.44, -3.16, -4.19, -2.52, -1.17, -1.5, -2.41, -4.12, -4.23, -3.9, -4.23, -4.79, -7.04, -8.35, -6.35, -1.55, 0.0, 1.84, 5.46, 7.6, 7.15, 7.6, 8.05, 8.05, 8.49, 8.94, 8.94, 9.39, 9.39, 9.39, 9.39, 9.39, 9.39, 8.94, 8.94, 9.39, 9.39, 9.39, 9.83, 9.83, 9.83, 9.39, 8.94, 7.6, 8.05, 7.6, 5.06, 0.0, -2.83, -1.28, 1.25, 4.98, 6.66, 6.47, 4.98, 4.36, 2.81, 3.04, 3.04, 4.12, 2.13, 3.11, -4.4, -6.95, -9.54, -9.39, -9.55, -9.3, -7.59, -7.59, -6.95, -8.4, -8.48, -8.0, -8.18, -7.4, -8.12, -8.12, -5.46, -5.46, -5.46, -4.87, -4.87, -4.87, -6.4, -6.4, -6.6, -5.99, -7.16, -6.8, -7.0, -8.05, -8.4, -7.66, -7.43, -7.06, -6.35, -5.19, -5.71, -6.54, -7.89, -8.78, -9.17, -7.84, -6.93, -5.98, -5.96, -5.07, -4.92, -4.49, -6.47, -10.13, -9.42, -5.99, -1.83, 0.0, 0.0, 1.32, 3.4, 7.07, 7.63, 5.58, 3.79, 8.05, 8.49, 8.94, 9.39, 9.39, 9.39, 8.94, 8.94, 8.94, 7.63, 7.6, 9.83, 8.49, 8.94, 0.0, 0.0, 8.94, 8.49, 8.49, 7.6, 7.15, 6.79, 3.2, 1.0, 2.49, 4.81, 6.24, 6.52, 4.94, 2.34, 0.0, -1.57, -2.45, 0.0, 0.0, 1.02, 5.46, -0.0, -1.84, -2.83, -8.06, -8.49, -7.6, -8.59, -6.64, -6.3, -8.93, -10.88, -9.33, -8.4, -8.55, -8.55, -8.55, -5.46, -5.46, -4.87, -4.87, -4.87, -4.87, -6.2, -6.4, -5.99, -6.17, -5.99, -6.8, -7.0, -7.0, -7.49, -7.88, -7.43, -7.43, -7.62, -8.94, -8.9, -8.21, -9.41, -9.81, -9.62, -7.95, -5.36, -5.07, -3.42, -2.36, -2.22, -2.47, -4.79, -9.67, -12.01, -9.92, -4.66, -1.83, -1.44, 0.0, 0.0, 0.0, 4.4, 6.32, 5.06, 7.2, 8.49, 8.94, 8.94, 8.94, 8.49, 8.49, 8.05, 8.49, 8.06, 5.69, 6.01, 0.0, 0.0, 0.0, 0.0, 0.0, 8.49, 7.6, 7.21, 7.15, 6.79, 5.37, 4.46, 4.56, 5.86, 6.4, 4.75, 1.61, -1.6, -4.71, -7.58, -7.74, -6.31, -3.82, 0.0, 0.0, -0.0, -0.0, -2.17, -2.69, -8.0, -8.49, -7.89, -6.52, -6.32, -8.85, -11.5, -9.6, -8.99, -8.21, -8.21, -8.21, -5.46, -4.87, -4.87, -4.87, -4.87, -4.87, -4.87, -6.4, -5.99, -6.17, -6.17, -6.8, -6.8, -6.47, -7.49, -7.0, -7.66, -7.73, -7.98, -8.77, -7.23, -6.52, -6.19, -8.11, -7.99, -6.81, -4.44, -2.58, -0.87, 0.0, 0.0, 0.0, -1.58, -6.47, -9.42, -9.42, -5.81, -5.46, -3.04, -2.71, -2.82, -1.47, 0.0, 3.8, 3.97, 4.11, 8.49, 6.01, 7.6, 8.05, 7.6, 8.05, 8.05, 8.05, 7.63, 5.69, 4.46, 0.0, -8.4, -8.94, -5.69, 0.0, 8.49, 7.6, 8.05, 7.6, 7.21, 6.32, 5.37, 6.64, 7.9, 7.19, 6.27, 1.34, -5.82, -9.32, -12.15, -11.79, -10.84, -7.51, -4.54, -1.62, 0.0, -0.0, -2.28, -4.96, -8.0, -9.39, -8.48, -7.21, -7.9, -7.56, -8.93, -8.6, -8.24, -7.53, -8.0, -8.0, -5.46, -5.46, -4.87, -4.87, -4.87, -4.87, -5.02, -5.81, -5.99, -6.17, -5.64, -6.8, -7.0, -6.47, -6.47, -7.0, -7.66, -7.73, -8.22, -8.11, -6.47, -4.54, -3.69, -3.92, -5.23, -6.12, -4.79, -3.42, -1.69, -0.77, -0.79, -0.83, -1.03, -2.96, -4.54, -6.14, -5.98, -4.66, -4.55, -3.68, -3.39, -2.49, -3.11, 0.0, 1.95, 4.11, 8.05, 7.2, 7.21, 6.79, 7.6, 7.6, 7.6, 7.6, 7.6, 7.21, 5.06, 2.54, -6.32, -7.37, -7.63, -6.01, 8.49, 8.49, 8.05, 7.6, 6.36, 5.58, 5.69, 7.15, 8.18, 5.29, 10.12, -0.0, -4.11, -9.7, -12.27, -13.71, -12.73, -10.87, -7.82, -4.05, 0.0, 9.39, 4.2, -0.0, -0.0, 6.64, 7.27, -0.0, -10.87, -8.49, -7.27, -6.9, -8.17, -7.12, -7.53, -7.53, -5.46, -5.46, -4.87, -4.87, -4.87, -4.87, -4.38, -5.81, -5.99, -6.17, -5.64, -7.0, -6.47, -6.47, -6.47, -7.0, -7.0, -6.99, -7.76, -7.57, -7.04, -5.37, -4.31, -3.2, -3.48, -4.67, -4.92, -3.59, -3.42, -2.4, -1.53, -1.53, -1.68, -3.16, -4.23, -3.49, -3.9, -3.69, -3.25, -2.52, -3.25, -3.11, -3.61, -2.82, 0.0, 1.84, 8.49, 7.6, 6.32, 7.37, 7.81, 7.6, 7.6, 7.6, 7.15, 6.79, 6.0, 5.72, 0.0, -7.2, -6.71, -7.15, 7.15, 6.79, 6.71, 5.81, 7.81, 6.32, 4.96, 4.71, 0.0, -1.23, 0.0, -0.0, -0.0, -5.7, -8.94, -12.35, -12.79, -12.36, -9.64, -5.92, 0.0, 3.8, 8.94, 8.67, 8.4, 8.4, 8.4, 2.97, -9.39, -7.89, -7.28, -6.52, -6.8, -6.99, -7.4, -7.4, -5.46, -5.46, -4.87, -4.87, -4.87, -4.87, -4.38, -4.52, -5.99, -6.17, -5.64, -5.64, -6.47, -6.47, -6.02, -7.0, -7.0, -6.37, -6.8, -7.57, -7.2, -6.47, -6.16, -5.23, -4.19, -4.19, -3.69, -3.78, -3.59, -2.52, -2.52, -2.34, -2.32, -2.72, -4.42, -5.09, -4.23, -3.07, -2.81, -2.37, -1.93, -2.7, -2.83, -3.25, -2.7, 0.0, 0.0, 6.26, 5.21, 5.37, 5.34, 7.45, 6.94, 7.15, 7.6, 7.15, 7.15, 6.14, 5.37, 0.0, -5.69, -6.71, 3.0, 6.07, 5.81, 8.05, 8.3, 7.51, 4.0, -1.58, -2.06, -1.62, 0.0, 0.0, 0.0, -10.12, -9.48, -10.96, -8.94, -11.45, -11.16, -8.15, -3.53, 2.02, 6.79, 8.05, 8.24, 8.67, 8.48, 4.0, -0.0, -8.24, -7.89, -6.8, -6.13, -6.4, -6.4, -6.4, -5.46, -5.46, -4.87, -4.87, -4.87, -4.87, -4.38, -4.52, -5.99, -5.48, -5.64, -5.64, -6.47, -6.47, -6.02, -6.02, -6.56, -6.56, -6.16, -7.0, -6.62, -6.45, -6.47, -6.16, -5.23, -5.09, -4.31, -3.5, -3.59, -3.59, -2.52, -2.4, -2.45, -2.72, -4.15, -5.78, -5.09, -3.9, -3.79, -3.53, -2.0, -2.59, -2.59, -2.83, -3.25, -2.49, -1.39, 0.0, 0.0, 4.43, 4.84, 5.2, 7.21, 7.06, 7.6, 7.6, 7.15, 7.15, 6.79, 4.46, 2.69, 0.0, 5.37, 6.94, 6.71, 8.77, 8.72, 7.51, 2.06, -1.58, -3.17, -2.49, -0.8, 0.0, 1.72, 1.11, -3.79, -13.41, -8.05, -8.94, -11.92, -10.99, -6.9, 2.1, 5.37, 7.47, 8.49, 8.49, 8.94, 8.49, 8.94, -6.01, -8.49, -7.06, -6.13, -6.13, -6.4, -6.4, -4.87, -4.87, -4.87, -4.87, -4.87, -4.87, -4.38, -4.38, -5.81, -5.48, -5.64, -5.64, -6.47, -6.29, -6.02, -6.02, -5.62, -6.56, -6.16, -6.16, -6.62, -6.27, -6.13, -6.3, -6.3, -5.99, -5.09, -4.21, -3.5, -3.5, -2.52, -2.52, -2.4, -2.52, -3.79, -5.56, -5.94, -5.94, -5.56, -4.3, -4.08, -2.71, -2.41, -1.76, -1.84, -2.95, -3.25, -2.28, -2.54, 0.0, 5.81, 4.8, 6.13, 6.64, 6.94, 7.06, 7.6, 7.15, 6.23, 4.74, 3.8, 3.6, 9.39, 7.15, 8.94, 8.77, 7.51, 4.0, 1.67, 0.0, -2.06, -2.57, -1.69, 0.0, 1.61, 1.67, -1.1, -12.02, -8.82, -7.89, -10.58, -12.27, -6.4, 2.6, 6.44, 6.79, 7.47, 7.07, 6.01, 8.49, 8.49, 8.24, -7.81, -8.49, -7.21, -6.8, -6.4, -6.4, -4.87, -4.87, -4.87, -4.87, -4.87, -4.87, -4.38, -4.38, -4.52, -5.31, -5.48, -5.64, -5.19, -6.29, -5.85, -5.85, -5.62, -6.56, -6.16, -6.16, -6.16, -5.81, -6.27, -5.96, -6.13, -6.13, -5.36, -5.36, -5.23, -4.21, -3.41, -3.24, -2.4, -2.4, -3.5, -4.93, -5.56, -6.1, -5.71, -5.41, -4.96, -3.56, -2.51, -1.5, -1.56, -1.5, -2.31, -2.59, -2.57, -3.17, 0.0, 5.36, 5.09, 6.54, 6.64, 6.45, 7.15, 7.15, 6.61, 5.75, 5.06, 6.7, 8.05, 7.6, 8.77, 9.97, 3.32, 0.0, 0.0, 0.0, -0.99, -1.84, -2.59, -2.49, -1.63, -1.66, -1.95, -11.44, -6.32, -6.32, -8.49, -13.01, -8.43, 3.68, 9.39, 9.39, 7.45, 6.44, 8.06, 8.05, 8.05, 8.49, -3.6, -7.94, -8.05, -7.74, -6.99, -6.99, -4.87, -4.87, -4.87, -4.87, -4.87, -4.87, -4.38, -4.52, -4.52, -5.31, -5.48, -5.64, -5.35, -6.47, -6.47, -5.85, -5.46, -5.46, -5.11, -5.99, -6.16, -5.81, -5.81, -5.49, -5.49, -5.49, -5.49, -5.65, -5.5, -4.43, -4.21, -3.41, -3.24, -3.09, -3.24, -4.67, -5.56, -7.12, -5.71, -5.56, -5.26, -4.51, -3.42, -2.83, -1.75, -1.54, -2.25, -4.58, -4.87, -3.21, -2.69, 0.0, 4.4, 5.09, 6.0, 6.13, 7.01, 7.15, 6.26, 6.71, 7.15, 8.05, 7.6, 8.49, 9.26, 7.81, 5.86, 0.0, -3.15, -2.83, -0.99, -1.68, -2.49, -4.13, -5.93, -6.4, -5.81, -8.53, -4.83, -4.96, -6.71, -12.07, -10.43, 0.0, 9.39, 7.6, 6.26, 7.6, 8.05, 7.6, 8.05, 7.6, 7.6, -6.8, -7.6, -7.98, -7.81, -7.81, -4.87, -4.87, -4.87, -4.87, -4.87, -4.38, -4.38, -4.52, -4.52, -5.31, -5.31, -5.64, -5.19, -6.47, -6.66, -6.02, -5.85, -5.46, -5.11, -5.11, -6.16, -5.81, -5.81, -5.81, -5.49, -5.49, -5.34, -5.49, -5.65, -4.54, -4.31, -4.1, -3.9, -3.01, -3.24, -3.59, -5.23, -5.94, -7.12, -6.69, -6.34, -5.63, -4.93, -3.53, -2.54, -1.75, -3.18, -6.42, -8.38, -7.18, -5.75, -4.34, -0.96, 4.4, 4.98, 5.82, 6.4, 6.98, 7.1, 6.45, 6.23, 6.8, 7.6, 8.49, 8.06, 7.6, 6.63, 2.39, -3.4, -4.42, -4.26, -2.47, -1.7, -2.45, -5.67, -6.8, -6.09, -4.48, -10.6, -5.7, -5.46, -9.2, -9.17, 0.0, 12.96, 8.24, 8.24, 7.63, 5.58, 6.94, 7.6, 8.05, 8.49, -0.0, -8.38, -8.49, -8.29, -8.29, -4.71, -4.71, -4.87, -4.87, -4.87, -4.38, -4.38, -4.52, -4.52, -5.48, -5.48, -5.31, -5.19, -5.19, -6.47, -6.02, -6.02, -5.62, -5.62, -5.26, -5.26, -4.95, -4.95, -4.95, -5.49, -5.49, -5.64, -4.66, -4.81, -4.67, -5.36, -4.95, -3.98, -3.79, -3.16, -3.32, -4.93, -5.56, -5.94, -5.71, -6.52, -5.99, -5.11, -4.5, -3.75, -4.07, -5.36, -7.58, -10.12, -10.3, -8.22, -5.46, -3.55, -0.96, 4.4, 5.26, 6.57, 7.12, 7.21, 6.88, 6.23, 6.8, 8.49, 8.24, 7.6, 7.47, 6.08, 2.06, -1.58, -4.37, -4.42, -2.83, -0.82, 0.0, -2.43, -5.96, -6.8, -5.11, -3.82, -8.22, -6.2, -5.95, -11.18, 0.0, 13.41, 11.03, 12.07, 10.28, 6.01, 6.0, 7.37, 7.6, 7.45, 7.6, -8.94, -8.94, -8.89, -8.89, -4.71, -4.71, -4.71, -4.87, -4.87, -4.38, -4.38, -4.52, -4.52, -4.24, -5.48, -5.48, -5.48, -5.35, -6.47, -6.02, -6.02, -5.78, -5.78, -5.41, -5.41, -5.41, -4.95, -4.95, -4.67, -4.67, -4.81, -4.81, -5.09, -4.66, -5.21, -5.36, -5.09, -3.98, -3.79, -4.1, -4.54, -5.56, -5.94, -5.94, -5.56, -6.16, -5.46, -4.4, -4.6, -4.48, -4.55, -3.32, -3.36, -4.65, -6.17, -5.03, -3.47, -3.22, -1.55, 4.0, 5.36, 6.79, 7.31, 7.1, 6.17, 7.6, 8.49, 7.2, 7.6, 7.2, 6.8, 2.54, 0.0, -1.4, -1.25, 0.0, 0.0, 0.0, 0.0, -3.69, -6.78, -6.84, -5.86, -4.64, -6.97, -10.8, -5.4, -8.22, 0.0, 13.41, 13.86, 9.8, 0.0, 0.0, 7.2, 8.49, 7.37, 7.01, 8.49, -8.94, -8.43, -8.43, -4.71, -4.71, -4.71, -4.87, -4.87, -4.38, -4.38, -4.52, -4.52, -4.24, -5.48, -5.48, -5.48, -5.04, -6.47, -6.02, -6.02, -6.02, -5.62, -5.78, -5.41, -5.41, -5.09, -4.95, -4.81, -4.81, -4.81, -5.63, -5.46, -6.02, -5.48, -5.49, -5.65, -4.54, -4.31, -4.1, -4.31, -5.23, -5.94, -5.94, -5.56, -5.41, -5.63, -4.75, -3.98, -4.66, -3.66, -2.41, -1.83, -0.97, -1.94, -1.96, -2.8, -2.6, -1.99, -0.88, 0.0, 5.2, 6.26, 6.26, 5.75, 7.15, 8.49, 7.37, 7.89, 7.89, 7.45, 6.32, 2.69, 1.75, 2.83, 2.97, 0.0, -1.69, -0.82, -0.98, -2.92, -6.98, -6.77, -5.57, -3.47, -5.8, -13.41, -9.48, -13.41, 0.0, 6.6, 3.47, 0.0, 0.0, 0.0, 8.0, 8.49, 6.94, 6.51, -8.49, -8.05, -8.05, -4.71, -4.71, -4.71, -4.71, -4.87, -4.38, -4.38, -4.52, -4.52, -4.24, -5.48, -5.64, -5.48, -5.04, -5.19, -6.47, -6.02, -6.02, -5.62, -5.78, -5.41, -5.56, -5.09, -5.09, -4.81, -4.81, -5.64, -5.48, -6.24, -6.24, -5.48, -5.64, -4.95, -4.67, -4.54, -4.31, -4.54, -5.09, -5.94, -5.94, -5.94, -5.56, -5.11, -4.36, -3.68, -4.08, -3.73, -3.91, -3.17, -2.37, -2.21, -1.68, -1.84, -1.96, -1.98, -1.14, 0.0, 1.19, 3.72, 4.82, 6.94, 7.21, 7.6, 8.05, 7.15, 7.6, 7.6, 6.94, 6.01, 4.96, 4.71, 1.93, 0.0, -3.39, -3.38, -0.94, 0.0, 0.0, -3.44, -5.8, -4.38, -4.52, -5.31, -9.8, -13.86, 0.0, 0.0, 0.0, 0.0, 0.0, 0.0, 0.0, 6.32, 7.6, 5.95, 5.69, -7.81, -7.81, -4.71, -4.71, -4.71, -4.71, -4.87, -4.38, -4.38, -4.52, -4.66, -4.24, -5.64, -5.64, -5.64, -5.04, -5.04, -5.19, -5.85, -5.85, -5.46, -5.62, -5.41, -5.41, -5.41, -5.09, -4.95, -4.81, -5.64, -5.48, -5.48, -5.64, -5.64, -4.81, -4.81, -4.81, -4.67, -4.41, -4.54, -5.09, -5.94, -6.36, -5.94, -4.73, -4.47, -3.68, -3.32, -2.82, -3.73, -3.78, -4.0, -3.87, -3.39, -2.82, -2.28, -2.44, -1.95, -1.18, 0.0, 0.0, 1.3, 3.16, 4.15, 6.8, 7.21, 7.6, 8.05, 8.05, 6.94, 7.37, 7.81, 6.01, 4.14, 1.93, 0.0, -2.51, -3.36, -0.84, 1.73, 2.8, 1.17, -1.47, -5.81, -5.81, -6.0, -5.8, -9.17, -9.8, -4.66, -3.14, -2.1, 0.0, 0.0, 0.0, -0.0, 8.05, 5.06, 4.22, -3.8, -3.8, -4.71, -4.71, -4.71, -4.71, -4.87, -4.87, -4.52, -4.52, -4.66, -4.66, -5.64, -5.64, -5.64, -5.48, -5.04, -5.19, -5.85, -5.85, -5.85, -5.62, -5.62, -5.41, -5.41, -5.09, -4.95, -4.81, -4.81, -5.48, -5.48, -5.64, -5.64, -5.64, -4.66, -4.4, -4.4, -4.29, -3.58, -4.67, -5.41, -6.19, -6.19, -5.09, -3.52, -3.02, -2.53, -2.99, -2.93, -3.66, -4.0, -4.81, -4.32, -3.46, -3.53, -2.97, -2.44, -1.84, -1.01, 0.0, 1.14, 2.0, 2.95, 4.19, 6.7, 7.15, 7.6, 8.49, 7.21, 8.06, 8.06, 7.07, 6.32, 2.54, 1.52, 0.0, -1.65, -1.61, 0.0, 0.87, 0.0, -2.22, -6.84, -8.05, -7.56, -5.54, -5.75, -5.0, -5.0, -1.84, -1.4, 0.0, 0.0, 0.0, 0.0, -0.0, 0.0, 3.4, 0.0, 0.0, -4.55, -4.55, -4.71, -4.71, -4.87, -4.87, -4.52, -4.52, -4.66, -4.66, -5.64, -5.64, -5.64, -5.64, -5.04, -5.04, -5.19, -5.85, -5.85, -5.62, -5.62, -5.26, -5.41, -5.41, -4.95, -4.81, -4.81, -5.48, -5.48, -5.64, -5.64, -5.64, -5.48, -4.4, -4.4, -4.4, -4.16, -4.53, -5.26, -6.19, -6.66, -5.5, -4.0, -2.54, -2.15, -1.98, -2.66, -3.53, -4.55, -4.81, -4.75, -4.68, -3.69, -3.78, -3.06, -2.31, -1.65, -0.89, 0.0, 0.96, 2.2, 2.95, 6.32, 6.94, 7.6, 8.94, 7.21, 7.63, 8.06, 7.63, 5.69, 4.83, 1.69, 0.0, -0.86, -3.23, -3.23, -2.47, -2.8, -4.3, -6.26, -8.15, -9.3, -7.9, -5.46, -4.4, -3.87, -2.26, -1.14, 0.0, 0.0, 0.0, -3.2, -9.39, 0.0, 0.0, 0.0, 1.95, -4.55, -4.55, -4.71, -4.71, -4.87, -4.87, -4.52, -4.52, -4.66, -4.66, -4.37, -5.64, -5.64, -5.64, -5.19, -5.04, -5.04, -5.85, -5.85, -5.62, -5.62, -5.62, -5.26, -5.41, -4.95, -4.81, -4.66, -4.66, -5.48, -5.48, -5.64, -5.48, -5.48, -5.48, -4.4, -4.4, -4.04, -4.29, -4.81, -5.62, -6.47, -5.98, -4.24, -3.82, -2.21, -1.86, -3.11, -4.54, -5.11, -5.48, -5.25, -4.47, -4.13, -4.07, -3.7, -3.15, -2.18, -1.65, 0.0, 0.0, 0.96, 2.53, 4.22, 5.58, 6.79, 8.49, 8.49, 7.37, 7.81, 6.7, 5.37, 6.01, 0.0, 0.0, 0.0, -1.77, -4.06, -4.98, -4.95, -4.79, -4.15, -5.4, -8.59, -9.2, -7.33, -5.21, -3.7, -3.7, -2.6, -1.28, -1.2, 0.0, 0.0, -6.64, -9.39, -5.69, 0.0, 0.0, -4.55, -4.55, -4.55, -4.71, -4.87, -4.87, -4.52, -4.52, -4.66, -4.66, -4.81, -4.37, -5.64, -5.64, -5.19, -5.04, -5.04, -5.04, -5.85, -5.85, -5.62, -5.62, -5.26, -5.26, -5.26, -4.81, -4.66, -4.66, -5.31, -5.31, -5.48, -5.48, -5.48, -5.48, -5.31, -4.4, -4.27, -4.04, -4.53, -5.46, -6.47, -7.0, -7.16, -5.86, -3.98, -4.24, -5.38, -6.4, -7.58, -6.88, -5.8, -4.99, -4.44, -4.25, -3.7, -3.15, -2.18, -1.55, -0.78, 0.0, 0.0, 1.55, 1.99, 4.22, 6.8, 8.05, 7.6, 7.37, 7.2, 5.69, 5.69, 1.95, 0.0, 0.0, 1.21, 0.95, -0.89, -4.21, -6.0, -4.71, -3.87, -3.07, -4.6, -6.95, -8.43, -7.27, -4.8, -4.58, -4.08, -4.08, -2.49, -1.0, -1.07, -2.28, -4.0, -5.69, -2.8, 0.0, -4.55, -4.55, -4.55, -4.71, -4.71, -4.87, -4.87, -4.52, -4.52, -4.66, -4.66, -4.24, -5.64, -5.64, -5.48, -5.04, -5.04, -5.04, -5.67, -5.85, -5.46, -5.46, -5.46, -5.26, -5.26, -4.95, -4.66, -4.52, -4.52, -5.31, -5.31, -5.48, -5.48, -5.48, -5.31, -5.31, -4.27, -4.13, -4.27, -4.96, -5.67, -7.82, -7.93, -7.68, -7.36, -6.79, -7.71, -8.29, -8.57, -7.93, -7.44, -5.18, -4.44, -4.07, -3.06, -3.15, -2.82, -1.55, -1.45, -0.72, 0.0, 0.81, 2.26, 5.06, 6.8, 7.21, 7.6, 7.6, 6.32, 5.69, 3.6, 1.95, 0.0, 0.0, 0.0, 2.4, 1.0, -2.13, -4.47, -5.9, -5.18, -4.5, -3.95, -5.92, -8.22, -8.22, -6.97, -5.2, -4.58, -4.08, -3.39, -2.97, -2.06, -3.11, -4.2, -4.46, -3.72, -3.72, -4.93, -4.93, -4.55, -4.55, -4.71, -4.71, -4.87, -4.52, -4.52, -4.52, -4.66, -4.66, -5.48, -5.48, -5.48, -5.04, -5.04, -5.04, -6.1, -5.67, -5.85, -5.46, -5.46, -5.11, -5.11, -5.11, -4.66, -4.52, -4.52, -4.38, -5.15, -5.15, -5.31, -5.31, -5.31, -5.15, -5.15, -4.0, -4.13, -4.52, -5.5, -7.36, -7.95, -7.36, -7.36, -7.11, -6.9, -6.43, -7.68, -8.51, -7.44, -6.21, -4.71, -3.88, -3.7, -3.15, -2.54, -2.4, -1.55, -0.78, 0.0, 0.0, 1.55, 4.22, 6.8, 7.21, 7.2, 7.2, 5.06, 3.6, 2.06, 0.0, 0.0, -1.2, -1.33, 0.0, 0.81, 1.05, 0.0, -4.24, -6.71, -6.45, -5.86, -5.6, -6.44, -5.4, -4.15, -3.53, -4.4, -3.92, -3.92, -3.11, -3.11, -3.45, -3.15, -3.8, -3.8, -3.8, -4.93, -4.93, -4.55, -4.55, -4.71, -4.71, -4.87, -4.87, -4.38, -4.52, -4.52, -4.66, -5.48, -5.48, -5.48, -5.04, -5.04, -6.1, -6.1, -5.67, -5.85, -5.46, -5.46, -5.46, -5.11, -5.11, -4.96, -4.52, -4.38, -4.38, -4.98, -4.98, -4.98, -5.15, -5.31, -4.98, -4.98, -4.24, -4.24, -4.24, -4.97, -6.64, -7.69, -7.1, -6.62, -6.36, -5.18, -4.27, -4.24, -5.08, -6.4, -6.2, -4.83, -4.5, -3.7, -4.0, -3.27, -2.4, -1.84, -0.83, -0.82, 0.0, 0.81, 4.22, 6.32, 7.21, 6.7, 5.69, 3.97, 3.4, 1.95, 0.0, 0.0, -1.16, -2.04, -1.68, 0.0, 1.67, 2.97, 2.45, 0.0, -1.73, -1.89, -1.72, -3.56, -3.32, -3.07, -4.23, -3.77, -3.92, -3.92, -3.25, -3.25, -3.3, -3.52, -4.6, -4.6, -4.6, -4.93, -4.93, -5.11, -4.55, -4.71, -4.71, -4.87, -4.87, -4.52, -4.52, -4.52, -4.66, -5.48, -5.48, -5.48, -5.04, -5.04, -5.04, -6.1, -5.67, -5.85, -5.85, -5.46, -5.46, -5.11, -5.11, -4.96, -4.52, -5.15, -4.98, -4.98, -4.98, -5.28, -5.28, -5.28, -5.28, -5.11, -4.98, -4.24, -4.24, -4.51, -6.0, -6.96, -6.84, -5.86, -5.68, -5.11, -4.0, -3.68, -4.12, -4.15, -4.18, -4.0, -4.0, -3.51, -3.15, -2.54, -2.54, -1.65, -0.89, 0.0, 0.0, 0.76, 2.4, 5.69, 6.7, 6.7, 5.06, 3.4, 1.84, 0.0, 0.0, 0.0, 0.0, -1.22, 0.0, 0.0, 1.6, 2.41, 3.69, 5.65, 6.22, 2.91, 0.0, -1.25, -2.72, -3.68, -3.53, -3.39, -3.77, -3.68, -2.97, -3.11, -3.45, -3.3, -3.35, -3.35, -3.35, -4.93, -4.93, -5.11, -4.55, -4.55, -4.71, -4.71, -4.87, -5.02, -4.52, -4.52, -4.52, -5.48, -5.48, -5.48, -5.48, -5.04, -5.04, -6.1, -6.1, -5.67, -5.85, -5.46, -5.46, -5.46, -5.11, -4.96, -5.63, -5.15, -5.15, -4.98, -4.81, -5.11, -5.11, -5.11, -5.11, -5.11, -5.11, -4.98, -4.1, -5.11, -5.8, -6.96, -6.84, -6.2, -5.99, -5.2, -5.2, -4.81, -4.33, -3.82, -2.83, -2.57, -2.44, -2.31, -2.31, -1.75, -0.89, -0.84, 0.0, 0.0, 0.82, 1.47, 2.98, 3.72, 6.01, 5.69, 3.97, 4.22, 1.95, 0.0, 2.06, 0.0, 0.0, 0.0, 1.16, 1.02, 0.86, 1.6, 3.23, 5.48, 6.44, 4.99, 2.42, 0.0, -2.56, -3.6, -4.72, -5.0, -5.2, -4.6, -4.0, -4.2, -2.97, -3.3, -3.14, -3.14, -3.14, -4.93, -4.93, -5.11, -4.55, -4.71, -4.71, -4.71, -4.87, -4.87, -4.52, -4.52, -4.52, -5.99, -5.48, -5.48, -5.48, -5.04, -5.04, -6.1, -6.1, -5.67, -5.85, -5.85, -5.46, -5.46, -5.11, -4.96, -5.63, -5.46, -5.46, -4.98, -5.11, -5.11, -4.93, -4.93, -4.93, -4.93, -4.93, -5.11, -4.1, -5.11, -5.43, -5.8, -6.48, -6.2, -6.33, -5.89, -5.29, -4.93, -4.87, -4.44, -3.65, -2.57, -1.67, -1.58, -0.8, -0.89, 0.0, 0.0, 0.0, 0.89, 1.72, 1.47, 2.98, 3.79, 6.01, 3.4, 3.6, 3.8, 2.54, 2.69, 2.69, 2.06, 0.0, 1.54, 1.39, 0.0, 0.0, 1.77, 2.61, 3.44, 3.79, 3.5, 2.25, 0.0, -1.2, -2.4, -4.32, -5.0, -5.45, -4.74, -4.74, -4.98, -4.98, -3.99, -3.99, -3.99, -3.99, -4.93, -4.93, -5.11, -5.11, -4.55, -4.71, -4.87, -4.87, -4.87, -4.38, -4.52, -4.52, -5.81, -5.48, -5.48, -5.48, -5.48, -5.04, -6.1, -5.92, -5.92, -5.67, -5.85, -5.46, -5.46, -5.46, -4.96, -5.63, -5.46, -5.46, -5.28, -5.28, -5.11, -4.93, -4.93, -4.75, -4.75, -4.93, -4.93, -4.93, -4.93, -4.93, -5.6, -6.48, -6.2, -6.33, -6.21, -5.29, -5.4, -5.0, -4.44, -3.51, -2.47, -1.6, -0.73, -0.76, 0.0, 0.0, 0.0, 0.0, 1.07, 0.95, 1.7, 2.53, 3.48, 5.69, 3.4, 3.4, 0.0, 0.0, 0.0, 2.69, 2.17, 0.0, 0.0, 0.0, 0.0, 1.02, 1.92, 2.71, 1.77, 1.77, 3.21, 3.42, 1.23, -1.21, -2.2, -2.82, -5.21, -5.21, -5.9, -5.63, -6.11, -6.11, -5.63, -4.98, -4.98, -4.98, -4.93, -4.93, -5.11, -5.11, -5.11, -4.71, -4.87, -4.87, -4.87, -4.52, -4.52, -5.81, -5.99, -5.48, -5.48, -5.48, -5.48, -5.04, -6.1, -6.1, -6.1, -5.67, -5.85, -5.85, -5.46, -5.3, -5.3, -5.63, -5.46, -5.28, -5.28, -5.28, -5.11, -4.93, -4.93, -4.75, -4.75, -4.75, -4.75, -4.93, -4.93, -4.93, -5.25, -6.08, -6.84, -6.94, -6.79, -5.6, -5.51, -4.8, -4.92, -4.07, -3.36, -2.47, -0.71, -0.73, 0.0, 0.0, 0.0, 0.0, 0.0, 0.95, 0.88, 1.83, 2.95, 4.74, 4.74, 2.26, 0.0, -2.06, -2.17, 0.0, 0.0, 2.28, 1.84, 1.54, 1.33, 1.22, 1.02, 0.97, 0.82, 0.83, 2.72, 3.21, 1.13, -1.27, -1.94, -0.94, -1.84, -3.27, -5.1, -5.53, -5.53, -5.24, -4.83, -4.83, -4.83, -4.83, -4.93, -4.93, -5.11, -5.11, -5.11, -4.71, -4.87, -4.87, -4.87, -5.02, -4.52, -5.81, -5.99, -5.99, -5.48, -5.48, -5.48, -5.04, -6.1, -6.1, -6.1, -5.67, -5.85, -5.85, -5.3, -5.3, -5.3, -5.99, -5.46, -5.46, -5.28, -5.28, -5.11, -4.93, -4.93, -4.75, -4.75, -4.75, -5.06, -4.75, -4.75, -4.75, -5.06, -5.4, -6.48, -6.94, -6.79, -6.56, -5.51, -5.41, -4.92, -5.06, -4.07, -2.17, -1.4, -0.67, -0.73, -0.76, 0.0, 0.0, 0.0, 0.0, 0.0, 1.05, 1.19, 1.98, 2.8, 2.12, 0.0, -2.54, -3.8, -4.0, -2.28, 0.0, 2.28, 1.84, 1.54, 1.33, 1.04, 0.0, 0.0, 0.0, 0.86, 0.86, 0.0, -2.5, 9.83, 5.81, 2.48, 0.0, -2.47, -3.9, -4.01, -3.72, -3.72, -3.33, -3.33, -3.33, -4.93, -4.93, -4.93, -5.11, -5.11, -4.55, -4.71, -4.87, -4.87, -5.02, -4.52, -5.99, -5.99, -5.99, -5.48, -5.48, -5.48, -5.48, -6.1, -6.1, -6.1, -6.1, -5.67, -5.67, -5.67, -5.3, -5.3, -5.99, -5.46, -5.46, -5.28, -5.28, -5.11, -5.11, -4.93, -4.75, -5.06, -4.87, -4.87, -4.87, -4.75, -4.75, -4.75, -5.2, -6.48, -7.36, -7.19, -6.56, -6.7, -6.0, -5.9, -5.06, -5.06, -3.7, -2.69, -1.95, -1.32, -0.69, -0.76, -0.74, 0.0, 0.0, 0.0, 0.0, 0.0, 0.0, 0.0, 0.0, 0.0, -2.26, -4.22, -3.8, -6.64, -5.46, 0.0, 1.84, 1.54, 1.26, 0.0, 0.0, 0.0, 0.0, 0.0, 0.0, -1.66, 0.0, 6.44, 6.9, 4.47, 1.55, 0.0, -2.4, -2.8, 0.0, 0.0, -1.73, -1.73, -1.73, -5.6, -5.6, -4.93, -5.11, -5.11, -5.11, -4.71, -4.87, -4.87, -5.02, -5.02, -5.99, -5.99, -5.99, -5.99, -5.48, -5.48, -5.48, -6.1, -6.1, -6.1, -6.1, -5.67, -5.67, -5.67, -5.3, -5.14, -5.99, -5.81, -5.28, -5.28, -5.11, -5.11, -5.11, -4.93, -5.06, -5.06, -4.87, -4.87, -4.87, -4.58, -4.58, -4.58, -4.87, -5.2, -6.24, -6.7, -6.7, -6.7, -6.0, -6.15, -5.29, -5.06, -4.2, -3.7, -2.9, -1.95, -1.44, -1.36, -1.4, -0.62, -0.64, -0.82, 0.0, 0.0, 0.0, 0.0, 0.0, 0.0, 0.0, -1.84, -3.6, -6.01, -6.32, 0.0, 0.0, 0.0, 0.0, -1.16, -1.04, -0.98, -0.89, -0.85, -2.36, -3.44, -7.6, 7.24, 8.05, 5.64, 3.16, 0.0, 5.06, 6.71, 5.36, 5.37, 0.0, 0.0, 0.0, -5.6, -5.6, -4.93, -4.93, -5.11, -5.11, -4.71, -4.71, -4.87, -4.87, -5.02, -5.81, -5.99, -5.99, -5.99, -5.48, -5.48, -5.48, -6.6, -6.29, -6.1, -6.1, -5.67, -5.67, -5.67, -5.5, -5.14, -5.99, -5.81, -5.62, -5.28, -5.11, -5.11, -4.93, -5.25, -5.06, -5.06, -4.87, -4.87, -4.68, -4.87, -4.58, -4.58, -4.87, -5.0, -6.0, -6.24, -6.45, -6.24, -6.41, -6.15, -5.7, -5.46, -4.4, -4.2, -3.06, -2.9, -2.9, -2.12, -1.36, -1.32, -1.36, -1.52, -0.89, -1.03, -1.23, 0.0, 0.0, 1.73, 0.0, 0.0, 0.0, -2.69, -3.6, -3.4, -2.83, -2.17, -1.47, -2.28, -2.97, -2.7, -1.93, -1.64, -2.3, -6.08, -9.17, 8.94, 6.28, 4.4, 4.02, 4.92, 7.15, 7.6, 7.6, 8.94, 0.0, 0.0, 0.0, -5.6, -5.6, -5.6, -4.93, -4.93, -5.11, -4.71, -4.87, -4.87, -4.87, -4.87, -6.4, -5.99, -5.99, -5.99, -5.99, -5.48, -5.48, -6.6, -6.29, -6.29, -6.1, -6.1, -5.67, -5.5, -5.5, -5.14, -5.81, -5.81, -5.62, -5.62, -5.43, -5.43, -5.25, -5.25, -5.06, -5.06, -4.87, -4.87, -4.68, -4.68, -4.58, -4.58, -4.4, -5.0, -5.14, -5.76, -5.76, -5.76, -6.15, -6.59, -5.7, -5.46, -4.78, -4.78, -3.49, -3.32, -3.32, -3.15, -2.82, -2.06, -1.32, -1.36, -1.72, -2.12, -1.1, -1.32, 0.0, 0.0, 0.0, 0.0, 0.0, 0.0, 0.0, 0.0, -4.71, -3.6, -4.96, -4.2, -3.81, -3.63, -3.81, -1.63, -2.15, -6.64, -15.65, 6.01, 5.24, 4.54, 4.4, 5.6, 8.05, 8.05, 8.94, 9.39, 0.0, 0.0, 0.0, -5.6, -5.6, -5.6, -4.93, -4.93, -4.93, -5.11, -4.71, -4.71, -4.71, -4.87, -6.4, -5.81, -5.99, -5.99, -5.99, -5.48, -5.48, -6.6, -6.8, -6.29, -6.29, -6.29, -5.67, -5.5, -5.5, -6.4, -5.81, -5.81, -5.62, -5.43, -5.43, -5.25, -5.25, -5.25, -5.06, -5.06, -4.87, -4.68, -4.68, -4.68, -4.68, -4.4, -4.4, -4.5, -5.14, -5.76, -5.76, -5.52, -5.9, -6.31, -5.7, -4.99, -4.78, -4.78, -3.81, -3.49, -3.32, -3.15, -2.99, -2.99, -2.06, -2.12, -2.35, -2.64, -2.12, -1.1, 0.0, 0.0, 0.0, 0.0, 0.0, 0.0, 0.0, -2.83, -4.0, -5.36, -4.96, -4.74, -4.74, -4.74, -3.63, -2.39, -1.9, -7.0, -6.8, 3.77, 4.01, 4.43, 3.79, 5.95, 6.01, 6.64, 6.64, 6.64, 6.64, 6.64, 6.64, -5.6, -5.6, -5.6, -5.6, -5.11, -5.11, -5.11, -4.55, -4.71, -4.71, -6.2, -6.4, -6.4, -5.99, -5.99, -5.99, -5.99, -6.6, -6.6, -6.6, -6.29, -6.29, -6.29, -6.1, -5.5, -6.4, -6.4, -6.2, -5.62, -5.62, -5.43, -5.25, -5.25, -5.25, -5.06, -5.06, -5.06, -4.87, -4.87, -4.68, -4.68, -4.68, -4.68, -4.4, -4.5, -4.8, -5.14, -5.52, -5.9, -5.9, -6.31, -5.7, -5.45, -5.21, -5.21, -3.99, -3.81, -3.32, -3.63, -4.12, -3.91, -2.82, -2.66, -2.26, -2.82, -3.2, -2.26, -1.18, 0.0, 0.0, 0.0, -1.84, -1.95, -1.95, -3.8, -5.1, -5.31, -4.96, -5.2, -4.74, -4.5, -4.34, -3.49, -3.39, -6.4, -10.75, 3.11, 3.47, 4.01, 5.37, 6.32, 6.64, 5.21, 6.64, 4.2, 4.2, 4.2, 4.2, -5.6, -5.6, -5.6, -5.6, -5.11, -5.11, -5.11, -5.28, -4.71, -4.71, -6.2, -6.2, -6.4, -5.99, -5.99, -5.99, -5.99, -6.6, -6.6, -6.8, -6.8, -6.29, -6.29, -6.1, -6.4, -6.4, -6.2, -6.2, -5.62, -5.43, -5.43, -5.25, -5.25, -5.06, -5.06, -5.06, -4.87, -4.87, -4.87, -4.68, -4.68, -4.68, -4.68, -4.23, -4.5, -4.8, -5.14, -5.9, -5.9, -5.9, -6.31, -5.9, -5.45, -5.21, -5.21, -4.4, -3.81, -3.81, -3.63, -3.45, -3.91, -3.69, -3.47, -2.9, -3.2, -3.55, -3.2, -2.26, -1.18, -1.4, 0.0, 0.0, 0.0, -1.84, -4.83, -6.01, -6.01, -6.01, -4.94, -4.5, -4.0, -4.56, -4.2, -4.13, -5.63, -14.75, -0.0, 3.6, 3.47, 4.71, 5.86, 5.06, 4.2, 2.97, 2.97, 2.97, 2.97, 2.97, -6.44, -6.44, -5.6, -5.6, -5.11, -5.11, -5.11, -5.28, -5.28, -4.71, -6.2, -6.2, -6.4, -6.4, -5.99, -5.81, -5.81, -7.16, -6.6, -6.6, -6.8, -6.29, -6.29, -6.29, -6.85, -6.2, -6.2, -6.2, -6.0, -5.43, -5.43, -5.25, -5.25, -5.06, -5.06, -5.06, -5.06, -4.87, -4.87, -4.68, -4.68, -4.68, -4.5, -4.5, -4.5, -4.8, -4.92, -5.9, -5.9, -5.9, -6.31, -5.9, -5.9, -5.21, -5.21, -4.2, -3.81, -3.81, -3.81, -4.34, -4.12, -3.91, -3.69, -3.47, -3.79, -3.55, -3.97, -3.4, -2.4, -1.01, 0.0, 0.0, 0.0, 0.0, -1.49, -4.14, -5.31, -6.01, -5.72, -4.0, -4.0, -4.56, -4.4, -4.13, -5.73, -13.03, -6.2, -0.0, 3.8, 3.8, 4.2, 4.4, 3.65, 2.39, 2.28, -0.0, -0.0, -0.0, -6.44, -6.44, -5.6, -5.6, -5.6, -5.11, -5.11, -5.11, -5.28, -4.71, -6.2, -6.2, -6.4, -6.4, -5.81, -5.81, -6.95, -6.95, -6.6, -6.6, -6.6, -6.8, -6.29, -7.06, -6.85, -6.64, -6.2, -6.0, -6.0, -5.8, -5.8, -5.25, -5.06, -5.06, -5.06, -5.4, -5.4, -5.2, -5.2, -5.2, -5.0, -4.68, -4.68, -4.5, -4.5, -4.8, -4.92, -5.29, -5.9, -5.9, -6.04, -5.9, -5.9, -5.21, -5.21, -4.2, -4.2, -3.63, -4.56, -4.34, -4.34, -4.5, -3.91, -4.22, -4.56, -4.03, -3.77, -4.22, -3.6, -2.4, -0.95, 0.0, 0.0, 0.0, 0.0, -1.49, -4.14, -6.01, -5.44, -5.2, -4.74, -5.21, -5.06, -5.14, -6.21, -8.83, -14.03, -4.32, -0.0, 1.62, 1.54, 1.54, 1.62, 1.84, -0.0, -0.0, -0.0, -0.0, -6.44, -6.44, -6.67, -5.8, -5.8, -5.8, -5.11, -5.11, -5.11, -6.65, -6.0, -6.2, -6.4, -6.4, -6.4, -5.81, -6.95, -6.95, -6.95, -6.6, -6.6, -6.6, -7.06, -7.06, -6.85, -6.64, -6.2, -6.0, -6.0, -5.8, -5.8, -5.6, -5.4, -5.4, -5.4, -5.2, -5.2, -5.2, -5.2, -5.0, -5.0, -5.0, -4.68, -4.5, -4.5, -4.8, -5.14, -5.29, -5.9, -5.9, -6.04, -5.9, -5.9, -5.21, -4.98, -4.2, -4.2, -3.63, -4.34, -4.34, -4.34, -4.12, -4.5, -4.83, -4.56, -4.56, -4.42, -5.15, -4.46, -3.4, -2.64, -1.6, 0.0, 0.0, 0.0, -1.49, -4.14, -6.01, -6.52, -6.01, -5.89, -5.76, -5.9, -6.15, -5.78, -7.93, -12.39, -11.21, -5.0, -1.93, -0.0, -0.0, -0.0, -0.0, -0.0, -0.0, -0.0, -0.0, -6.44, -6.44, -6.67, -5.8, -5.8, -5.8, -5.11, -5.11, -5.11, -6.65, -6.0, -6.2, -6.4, -6.4, -6.4, -5.81, -6.95, -6.95, -6.95, -6.6, -6.6, -6.6, -7.06, -7.06, -6.85, -6.64, -6.2, -6.0, -6.0, -5.8, -5.8, -5.6, -5.4, -5.4, -5.4, -5.2, -5.2, -5.2, -5.2, -5.0, -5.0, -5.0, -4.68, -4.5, -4.5, -4.8, -5.14, -5.29, -5.9, -5.9, -6.04, -5.9, -5.9, -5.21, -4.98, -4.2, -4.2, -3.63, -4.34, -4.34, -4.34, -4.12, -4.5, -4.83, -4.56, -4.56, -4.42, -5.15, -4.46, -3.4, -2.64, -1.6, 0.0, 0.0, 0.0, -1.49, -5.31, -6.01, -6.52, -6.01, -5.89, -6.04, -5.9, -6.15, -5.75, -7.19, -9.48, -12.35, -9.97, -6.71, -4.6, -1.84, -0.0, -0.0, -0.0, -0.0, -0.0, -0.0]}]